KC5DAQ-28 Weather Reports


time (UTC)temp
C
wind
direction
speed
KPH
gust
KPH
rain 1hr
cm
rain 24hr
cm
rain mn
cm
humidity
%
barometer
mb
20260506202833 29 176 4.8 14.5 0.00 0.00 0.00 77 1002.9
20260506202732 29 161 3.2 14.5 0.00 0.00 0.00 77 1002.9
20260506202625 29 168 3.2 14.5 0.00 0.00 0.00 77 1002.9
20260506202521 29 145 3.2 14.5 0.00 0.00 0.00 77 1002.9
20260506202418 29 148 3.2 14.5 0.00 0.00 0.00 77 1002.9
20260506202318 29 144 4.8 14.5 0.00 0.00 0.00 76 1002.9
20260506202203 29 135 4.8 14.5 0.00 0.00 0.00 76 1002.9
20260506202102 29 154 4.8 8.0 0.00 0.00 0.00 76 1003.0
20260506202004 29 147 3.2 6.4 0.00 0.00 0.00 76 1003.0
20260506201903 29 133 3.2 6.4 0.00 0.00 0.00 76 1003.0
20260506201802 29 159 3.2 6.4 0.00 0.00 0.00 76 1002.9
20260506201703 29 157 4.8 6.4 0.00 0.00 0.00 76 1003.0
20260506201602 29 151 3.2 9.7 0.00 0.00 0.00 76 1003.0
20260506201502 29 151 1.6 9.7 0.00 0.00 0.00 76 1003.0
20260506201404 29 151 0.0 9.7 0.00 0.00 0.00 76 1002.9
20260506201303 29 190 0.0 9.7 0.00 0.00 0.00 76 1003.0
20260506201203 29 190 0.0 9.7 0.00 0.00 0.00 76 1002.9
20260506201103 29 190 1.6 9.7 0.00 0.00 0.00 76 1002.9
20260506201004 29 190 1.6 9.7 0.00 0.00 0.00 76 1003.0
20260506200902 29 190 3.2 9.7 0.00 0.00 0.00 76 1003.0
20260506200803 29 190 4.8 9.7 0.00 0.00 0.00 76 1003.0
20260506200702 29 216 3.2 9.7 0.00 0.00 0.00 76 1003.0
20260506200602 29 188 3.2 8.0 0.00 0.00 0.00 76 1003.0
20260506200505 29 188 3.2 8.0 0.00 0.00 0.00 76 1003.0
20260506200402 29 188 3.2 8.0 0.00 0.00 0.00 75 1003.0
20260506200303 29 189 4.8 8.0 0.00 0.00 0.00 75 1003.0
20260506200203 29 224 4.8 8.0 0.00 0.00 0.00 76 1003.0
20260506200004 29 209 6.4 8.0 0.00 0.00 0.00 76 1003.1
20260506195902 29 195 4.8 8.0 0.00 0.00 0.00 76 1003.1
20260506195803 29 228 3.2 8.0 0.00 0.00 0.00 77 1003.1
20260506195703 29 243 3.2 6.4 0.00 0.00 0.00 77 1003.0
20260506195603 29 245 3.2 6.4 0.00 0.00 0.00 76 1003.0
20260506195503 29 182 3.2 6.4 0.00 0.00 0.00 76 1003.0
20260506195402 29 206 4.8 8.0 0.00 0.00 0.00 76 1003.1
20260506195305 29 212 4.8 8.0 0.00 0.00 0.00 76 1003.1
20260506195202 29 173 1.6 8.0 0.00 0.00 0.00 77 1003.1
20260506195103 29 169 1.6 8.0 0.00 0.00 0.00 77 1003.1
20260506195004 29 168 1.6 8.0 0.00 0.00 0.00 77 1003.2
20260506194902 29 169 3.2 8.0 0.00 0.00 0.00 77 1003.1
20260506194802 29 169 3.2 8.0 0.00 0.00 0.00 77 1003.0
20260506194702 29 172 4.8 8.0 0.00 0.00 0.00 77 1003.1
20260506194602 28 152 4.8 8.0 0.00 0.00 0.00 77 1003.1
20260506194503 28 155 4.8 8.0 0.00 0.00 0.00 77 1003.1
20260506194401 28 159 3.2 6.4 0.00 0.00 0.00 78 1003.1
20260506194303 28 168 3.2 8.0 0.00 0.00 0.00 78 1003.2
20260506194203 28 169 3.2 8.0 0.00 0.00 0.00 78 1003.1
20260506194103 28 157 3.2 8.0 0.00 0.00 0.00 78 1003.2
20260506194002 28 155 3.2 8.0 0.00 0.00 0.00 77 1003.2
20260506193901 28 145 3.2 8.0 0.00 0.00 0.00 77 1003.2
20260506193804 28 145 4.8 8.0 0.00 0.00 0.00 77 1003.2
20260506193702 29 142 4.8 8.0 0.00 0.00 0.00 78 1003.2
20260506193603 29 147 3.2 8.0 0.00 0.00 0.00 78 1003.2
20260506193502 29 133 4.8 8.0 0.00 0.00 0.00 79 1003.2
20260506193402 29 109 3.2 8.0 0.00 0.00 0.00 79 1003.2
20260506193302 28 110 1.6 6.4 0.00 0.00 0.00 79 1003.2
20260506193203 28 110 3.2 6.4 0.00 0.00 0.00 79 1003.2
20260506193102 28 104 3.2 6.4 0.00 0.00 0.00 79 1003.2
20260506193002 28 100 3.2 6.4 0.00 0.00 0.00 79 1003.2
20260506192902 28 128 1.6 6.4 0.00 0.00 0.00 79 1003.2
20260506192801 28 128 1.6 6.4 0.00 0.00 0.00 79 1003.2
20260506192703 28 128 1.6 8.0 0.00 0.00 0.00 79 1003.2
20260506192602 28 127 1.6 8.0 0.00 0.00 0.00 80 1003.3
20260506192503 28 127 3.2 8.0 0.00 0.00 0.00 80 1003.3
20260506192402 28 127 1.6 8.0 0.00 0.00 0.00 81 1003.3
20260506192305 28 127 1.6 8.0 0.00 0.00 0.00 81 1003.3
20260506192202 28 127 3.2 8.0 0.00 0.00 0.00 81 1003.3
20260506192103 28 125 3.2 8.0 0.00 0.00 0.00 81 1003.3
20260506192002 28 125 4.8 8.0 0.00 0.00 0.00 81 1003.4
20260506191902 28 125 6.4 8.0 0.00 0.00 0.00 81 1003.4
20260506191802 28 121 6.4 8.0 0.00 0.00 0.00 81 1003.4
20260506191703 28 133 4.8 8.0 0.00 0.00 0.00 82 1003.4
20260506191602 28 137 3.2 8.0 0.00 0.00 0.00 81 1003.5
20260506191502 28 137 4.8 8.0 0.00 0.00 0.00 81 1003.5
20260506191402 28 140 4.8 8.0 0.00 0.00 0.00 80 1003.5
20260506191302 28 148 4.8 8.0 0.00 0.00 0.00 80 1003.5
20260506191201 28 151 6.4 8.0 0.00 0.00 0.00 80 1003.5
20260506191102 28 161 4.8 8.0 0.00 0.00 0.00 79 1003.5
20260506191003 28 161 4.8 8.0 0.00 0.00 0.00 79 1003.5
20260506190904 28 158 4.8 8.0 0.00 0.00 0.00 79 1003.6
20260506190802 28 157 3.2 8.0 0.00 0.00 0.00 79 1003.6
20260506190704 28 138 4.8 8.0 0.00 0.00 0.00 78 1003.6
20260506190602 28 134 6.4 9.7 0.00 0.00 0.00 77 1003.6
20260506190502 28 180 4.8 9.7 0.00 0.00 0.00 77 1003.6
20260506190404 28 166 4.8 11.3 0.00 0.00 0.00 77 1003.6
20260506190302 29 135 6.4 11.3 0.00 0.00 0.00 77 1003.6
20260506190203 29 124 6.4 11.3 0.00 0.00 0.00 77 1003.6
20260506190002 29 120 6.4 11.3 0.00 0.00 0.00 77 1003.5
20260506185902 29 176 6.4 16.1 0.00 0.00 0.00 76 1003.6
20260506185802 29 155 6.4 16.1 0.00 0.00 0.00 77 1003.6
20260506185704 29 162 6.4 16.1 0.00 0.00 0.00 76 1003.6
20260506185602 29 114 9.7 16.1 0.00 0.00 0.00 76 1003.6
20260506185502 29 114 9.7 16.1 0.00 0.00 0.00 76 1003.5
20260506185404 29 104 6.4 16.1 0.00 0.00 0.00 78 1003.6
20260506185306 29 138 3.2 16.1 0.00 0.00 0.00 78 1003.6
20260506185203 29 128 4.8 16.1 0.00 0.00 0.00 78 1003.7
20260506185103 29 127 9.7 16.1 0.00 0.00 0.00 77 1003.7
20260506185002 29 109 11.3 16.1 0.00 0.00 0.00 77 1003.6
20260506184902 28 103 6.4 14.5 0.00 0.00 0.00 77 1003.6
20260506184802 28 120 4.8 8.0 0.00 0.00 0.00 78 1003.6
20260506184703 28 123 4.8 8.0 0.00 0.00 0.00 78 1003.6
20260506184603 28 123 3.2 8.0 0.00 0.00 0.00 78 1003.7
20260506184502 28 138 0.0 8.0 0.00 0.00 0.00 78 1003.7
20260506184402 28 140 1.6 9.7 0.00 0.00 0.00 79 1003.7
20260506184302 28 135 3.2 9.7 0.00 0.00 0.00 80 1003.7
20260506184203 28 135 3.2 9.7 0.00 0.00 0.00 80 1003.8
20260506184101 28 183 1.6 9.7 0.00 0.00 0.00 79 1003.8
20260506184004 28 185 3.2 9.7 0.00 0.00 0.00 79 1003.8
20260506183902 28 185 3.2 9.7 0.00 0.00 0.00 79 1003.8
20260506183803 28 192 4.8 9.7 0.00 0.00 0.00 79 1003.8
20260506183703 28 196 4.8 9.7 0.00 0.00 0.00 79 1003.8
20260506183604 28 106 6.4 9.7 0.00 0.00 0.00 79 1003.8
20260506183503 28 106 6.4 9.7 0.00 0.00 0.00 80 1003.7
20260506183402 28 110 6.4 8.0 0.00 0.00 0.00 80 1003.8
20260506183303 28 110 4.8 8.0 0.00 0.00 0.00 81 1003.8
20260506183203 28 124 3.2 6.4 0.00 0.00 0.00 80 1003.8
20260506183104 28 123 3.2 6.4 0.00 0.00 0.00 80 1003.8
20260506183002 28 123 3.2 6.4 0.00 0.00 0.00 80 1003.8
20260506182904 28 123 3.2 6.4 0.00 0.00 0.00 81 1003.9
20260506182802 28 123 0.0 6.4 0.00 0.00 0.00 81 1003.9
20260506182703 28 117 1.6 6.4 0.00 0.00 0.00 81 1003.9
20260506182603 28 117 3.2 6.4 0.00 0.00 0.00 81 1003.9
20260506182502 27 117 1.6 6.4 0.00 0.00 0.00 81 1003.9
20260506182402 27 117 1.6 6.4 0.00 0.00 0.00 81 1004.0
20260506182306 27 117 3.2 6.4 0.00 0.00 0.00 81 1004.0
20260506182202 27 117 3.2 6.4 0.00 0.00 0.00 81 1004.0
20260506182103 27 117 4.8 6.4 0.00 0.00 0.00 82 1004.1
20260506182001 27 117 3.2 6.4 0.00 0.00 0.00 82 1004.1
20260506181902 27 118 3.2 6.4 0.00 0.00 0.00 82 1004.1
20260506181802 27 114 3.2 6.4 0.00 0.00 0.00 82 1004.1
20260506181702 27 113 3.2 6.4 0.00 0.00 0.00 82 1004.1
20260506181604 27 110 3.2 6.4 0.00 0.00 0.00 81 1004.1
20260506181503 27 110 4.8 6.4 0.00 0.00 0.00 81 1004.2
20260506181403 27 110 4.8 6.4 0.00 0.00 0.00 81 1004.2
20260506181303 27 109 4.8 6.4 0.00 0.00 0.00 82 1004.2
20260506181202 27 110 1.6 8.0 0.00 0.00 0.00 82 1004.3
20260506181103 27 110 1.6 9.7 0.00 0.00 0.00 82 1004.3
20260506181003 27 110 3.2 9.7 0.00 0.00 0.00 82 1004.3
20260506180901 27 110 1.6 9.7 0.00 0.00 0.00 82 1004.3
20260506180802 27 110 1.6 9.7 0.00 0.00 0.00 82 1004.3
20260506180702 27 110 1.6 9.7 0.00 0.00 0.00 82 1004.4
20260506180603 27 110 1.6 9.7 0.00 0.00 0.00 82 1004.4
20260506180503 27 107 1.6 9.7 0.00 0.00 0.00 82 1004.4
20260506180402 27 107 3.2 9.7 0.00 0.00 0.00 82 1004.3
20260506180302 27 107 3.2 9.7 0.00 0.00 0.00 82 1004.4
20260506180203 27 106 1.6 9.7 0.00 0.00 0.00 82 1004.4
20260506180103 27 165 1.6 6.4 0.00 0.00 0.00 81 1004.5
20260506180003 27 165 3.2 6.4 0.00 0.00 0.00 81 1004.5
20260506175901 27 171 1.6 6.4 0.00 0.00 0.00 81 1004.5
20260506175803 27 172 1.6 4.8 0.00 0.00 0.00 81 1004.6
20260506175702 27 172 0.0 3.2 0.00 0.00 0.00 82 1004.6
20260506175602 27 172 1.6 3.2 0.00 0.00 0.00 82 1004.6
20260506175504 27 172 1.6 3.2 0.00 0.00 0.00 82 1004.7
20260506175402 27 172 3.2 3.2 0.00 0.00 0.00 82 1004.6
20260506175306 27 173 1.6 3.2 0.00 0.00 0.00 82 1004.7
20260506175204 27 176 0.0 3.2 0.00 0.00 0.00 82 1004.7
20260506175101 27 176 0.0 3.2 0.00 0.00 0.00 82 1004.7
20260506175002 27 176 0.0 3.2 0.00 0.00 0.00 82 1004.8
20260506174903 27 176 0.0 3.2 0.00 0.00 0.00 82 1004.7
20260506174802 27 176 1.6 3.2 0.00 0.00 0.00 82 1004.8
20260506174703 27 176 1.6 3.2 0.00 0.00 0.00 82 1004.7
20260506174601 27 175 1.6 3.2 0.00 0.00 0.00 82 1004.7
20260506174503 27 175 1.6 1.6 0.00 0.00 0.00 83 1004.8
20260506174404 -17 0.0 0.0 0.00 0.00 0.00 1004.7
20260506174304 -17 0.0 0.0 0.00 0.00 0.00 1004.7
20260506174203 27 178 1.6 3.2 0.00 0.00 0.00 83 1004.8
20260506174105 27 178 1.6 3.2 0.00 0.00 0.00 83 1004.9
20260506174003 27 178 1.6 3.2 0.00 0.00 0.00 83 1004.9
20260506173904 27 178 1.6 3.2 0.00 0.00 0.00 83 1004.9
20260506173803 27 178 1.6 6.4 0.00 0.00 0.00 83 1004.9
20260506173704 27 178 1.6 6.4 0.00 0.00 0.00 83 1004.9
20260506173604 27 178 1.6 6.4 0.00 0.00 0.00 83 1004.9
20260506173503 27 178 1.6 6.4 0.00 0.00 0.00 83 1004.9
20260506173403 27 178 1.6 6.4 0.00 0.00 0.00 83 1005.0
20260506173303 27 178 1.6 6.4 0.00 0.00 0.00 83 1005.0
20260506173203 27 178 0.0 6.4 0.00 0.00 0.00 82 1005.0
20260506173104 27 178 0.0 6.4 0.00 0.00 0.00 83 1005.1
20260506173003 27 178 1.6 6.4 0.00 0.00 0.00 83 1005.1
20260506172901 27 178 3.2 6.4 0.00 0.00 0.00 83 1005.2
20260506172803 27 227 3.2 4.8 0.00 0.00 0.00 83 1005.2
20260506172704 27 164 3.2 4.8 0.00 0.00 0.00 83 1005.2
20260506172603 27 157 3.2 4.8 0.00 0.00 0.00 83 1005.2
20260506172502 27 155 3.2 4.8 0.00 0.00 0.00 83 1005.1
20260506172403 27 149 0.0 3.2 0.00 0.00 0.00 84 1005.1
20260506172306 27 149 0.0 4.8 0.00 0.00 0.00 84 1005.2
20260506172202 27 148 1.6 4.8 0.00 0.00 0.00 84 1005.2
20260506172103 27 148 0.0 4.8 0.00 0.00 0.00 84 1005.2
20260506172003 27 148 0.0 6.4 0.00 0.00 0.00 84 1005.2
20260506171901 27 148 0.0 6.4 0.00 0.00 0.00 84 1005.2
20260506171803 27 148 0.0 6.4 0.00 0.00 0.00 84 1005.2
20260506171703 27 148 0.0 6.4 0.00 0.00 0.00 84 1005.2
20260506171604 27 148 1.6 6.4 0.00 0.00 0.00 84 1005.2
20260506171504 27 148 1.6 6.4 0.00 0.00 0.00 83 1005.2
20260506171403 27 148 1.6 6.4 0.00 0.00 0.00 83 1005.2
20260506171303 27 148 3.2 6.4 0.00 0.00 0.00 84 1005.1
20260506171204 27 145 3.2 6.4 0.00 0.00 0.00 84 1005.2
20260506171104 27 148 3.2 6.4 0.00 0.00 0.00 84 1005.2
20260506171003 27 131 3.2 9.7 0.00 0.00 0.00 84 1005.2
20260506170902 26 131 4.8 9.7 0.00 0.00 0.00 84 1005.2
20260506170802 26 131 3.2 9.7 0.00 0.00 0.00 84 1005.2
20260506170702 26 131 1.6 9.7 0.00 0.00 0.00 84 1005.2
20260506170604 26 130 3.2 9.7 0.00 0.00 0.00 85 1005.1
20260506170503 26 125 3.2 11.3 0.00 0.00 0.00 85 1005.2
20260506170401 26 125 3.2 11.3 0.00 0.00 0.00 85 1005.2
20260506170301 26 124 4.8 11.3 0.00 0.00 0.00 84 1005.2
20260506170202 26 127 6.4 11.3 0.00 0.00 0.00 84 1005.2
20260506170104 26 123 6.4 11.3 0.00 0.00 0.00 85 1005.1
20260506170003 26 106 4.8 11.3 0.00 0.00 0.00 84 1005.1
20260506165902 26 110 4.8 11.3 0.00 0.00 0.00 85 1005.1
20260506165803 26 118 4.8 11.3 0.00 0.00 0.00 85 1005.1
20260506165703 26 104 4.8 11.3 0.00 0.00 0.00 85 1005.1
20260506165602 26 103 4.8 11.3 0.00 0.00 0.00 85 1005.1
20260506165504 26 138 6.4 9.7 0.00 0.00 0.00 85 1005.1
20260506165402 26 118 6.4 14.5 0.00 0.00 0.00 85 1005.1
20260506165305 26 123 6.4 14.5 0.00 0.00 0.00 85 1005.1
20260506165203 26 114 8.0 14.5 0.00 0.00 0.00 85 1005.1
20260506165102 26 128 8.0 14.5 0.00 0.00 0.00 85 1005.1
20260506165004 26 107 6.4 14.5 0.00 0.00 0.00 85 1005.2
20260506164904 26 145 6.4 14.5 0.00 0.00 0.00 84 1005.2
20260506164804 26 116 6.4 14.5 0.00 0.00 0.00 84 1005.2
20260506164703 26 120 6.4 14.5 0.00 0.00 0.00 84 1005.1
20260506164601 26 118 8.0 14.5 0.00 0.00 0.00 84 1005.1
20260506164504 26 104 8.0 14.5 0.00 0.00 0.00 84 1005.0
20260506164403 26 109 6.4 8.0 0.00 0.00 0.00 84 1005.1
20260506164303 26 120 6.4 11.3 0.00 0.00 0.00 84 1005.1
20260506164203 26 121 4.8 11.3 0.00 0.00 0.00 84 1005.2
20260506164103 26 125 3.2 11.3 0.00 0.00 0.00 84 1005.2
20260506164003 26 128 3.2 11.3 0.00 0.00 0.00 83 1005.2
20260506163904 26 128 4.8 11.3 0.00 0.00 0.00 83 1005.2
20260506163803 26 127 4.8 11.3 0.00 0.00 0.00 83 1005.2
20260506163704 26 113 6.4 11.3 0.00 0.00 0.00 83 1005.1
20260506163603 26 148 6.4 11.3 0.00 0.00 0.00 83 1005.1
20260506163504 27 121 6.4 11.3 0.00 0.00 0.00 83 1005.1
20260506163403 27 103 6.4 11.3 0.00 0.00 0.00 83 1005.1
20260506163303 27 111 4.8 11.3 0.00 0.00 0.00 83 1005.1
20260506163203 27 128 4.8 11.3 0.00 0.00 0.00 82 1005.0
20260506163104 27 148 4.8 11.3 0.00 0.00 0.00 82 1005.1
20260506163003 27 131 3.2 11.3 0.00 0.00 0.00 82 1005.1
20260506162902 27 128 8.0 11.3 0.00 0.00 0.00 82 1005.0
20260506162804 27 103 9.7 11.3 0.00 0.00 0.00 82 1005.0
20260506162702 27 107 8.0 11.3 0.00 0.00 0.00 82 1005.0
20260506162603 27 107 4.8 11.3 0.00 0.00 0.00 82 1005.1
20260506162503 27 147 3.2 11.3 0.00 0.00 0.00 82 1005.2
20260506162402 27 148 3.2 11.3 0.00 0.00 0.00 82 1005.1
20260506162302 27 140 3.2 11.3 0.00 0.00 0.00 82 1005.1
20260506162201 27 128 3.2 11.3 0.00 0.00 0.00 82 1005.0
20260506162103 27 113 3.2 11.3 0.00 0.00 0.00 82 1005.0
20260506162004 27 113 4.8 11.3 0.00 0.00 0.00 82 1004.9
20260506161904 27 102 8.0 11.3 0.00 0.00 0.00 82 1005.0
20260506161803 27 102 8.0 11.3 0.00 0.00 0.00 82 1005.0
20260506161703 27 109 8.0 11.3 0.00 0.00 0.00 82 1005.0
20260506161603 27 130 6.4 8.0 0.00 0.00 0.00 82 1004.9
20260506161503 27 124 6.4 8.0 0.00 0.00 0.00 82 1004.8
20260506161403 27 117 3.2 9.7 0.00 0.00 0.00 82 1004.8
20260506161304 27 166 3.2 9.7 0.00 0.00 0.00 82 1004.7
20260506161202 27 166 3.2 9.7 0.00 0.00 0.00 82 1004.6
20260506161104 27 151 3.2 9.7 0.00 0.00 0.00 82 1004.6
20260506161002 27 152 4.8 9.7 0.00 0.00 0.00 82 1004.6
20260506160903 27 142 6.4 9.7 0.00 0.00 0.00 82 1004.6
20260506160803 27 123 4.8 9.7 0.00 0.00 0.00 83 1004.6
20260506160704 27 141 4.8 9.7 0.00 0.00 0.00 83 1004.6
20260506160603 27 142 6.4 9.7 0.00 0.00 0.00 83 1004.5
20260506160504 27 140 6.4 9.7 0.00 0.00 0.00 83 1004.5
20260506160403 27 135 6.4 8.0 0.00 0.00 0.00 83 1004.6
20260506160302 27 141 4.8 9.7 0.00 0.00 0.00 82 1004.6
20260506160204 27 120 6.4 9.7 0.00 0.00 0.00 82 1004.6
20260506160004 27 130 6.4 9.7 0.00 0.00 0.00 83 1004.7
20260506155903 27 171 6.4 9.7 0.00 0.00 0.00 83 1004.6
20260506155802 27 128 6.4 9.7 0.00 0.00 0.00 83 1004.7
20260506155704 26 116 4.8 9.7 0.00 0.00 0.00 83 1004.6
20260506155603 26 109 4.8 9.7 0.00 0.00 0.00 83 1004.6
20260506155503 26 109 6.4 9.7 0.00 0.00 0.00 83 1004.6
20260506155403 26 109 4.8 9.7 0.00 0.00 0.00 83 1004.6
20260506155306 26 107 3.2 8.0 0.00 0.00 0.00 84 1004.6
20260506155202 26 145 1.6 8.0 0.00 0.00 0.00 84 1004.6
20260506155102 26 145 1.6 8.0 0.00 0.00 0.00 84 1004.6
20260506155004 26 145 0.0 8.0 0.00 0.00 0.00 84 1004.7
20260506154904 26 125 1.6 8.0 0.00 0.00 0.00 84 1004.7
20260506154803 26 125 3.2 8.0 0.00 0.00 0.00 84 1004.7
20260506154702 26 127 4.8 8.0 0.00 0.00 0.00 84 1004.7
20260506154602 26 128 4.8 8.0 0.00 0.00 0.00 84 1004.7
20260506154505 26 131 4.8 8.0 0.00 0.00 0.00 84 1004.7
20260506154404 26 140 3.2 8.0 0.00 0.00 0.00 84 1004.7
20260506154302 26 145 3.2 8.0 0.00 0.00 0.00 84 1004.6
20260506154203 26 144 4.8 8.0 0.00 0.00 0.00 84 1004.6
20260506154101 26 140 4.8 8.0 0.00 0.00 0.00 84 1004.7
20260506154003 26 125 6.4 8.0 0.00 0.00 0.00 84 1004.6
20260506153903 26 127 3.2 8.0 0.00 0.00 0.00 84 1004.7
20260506153802 26 137 3.2 6.4 0.00 0.00 0.00 84 1004.7
20260506153703 26 148 0.0 6.4 0.00 0.00 0.00 84 1004.7
20260506153602 26 151 0.0 6.4 0.00 0.00 0.00 84 1004.6
20260506153504 26 151 1.6 6.4 0.00 0.00 0.00 84 1004.6
20260506153401 26 149 1.6 6.4 0.00 0.00 0.00 84 1004.6
20260506153304 26 151 1.6 6.4 0.00 0.00 0.00 84 1004.6
20260506153202 26 151 3.2 6.4 0.00 0.00 0.00 84 1004.6
20260506153103 26 149 3.2 6.4 0.00 0.00 0.00 84 1004.6
20260506153004 26 130 3.2 6.4 0.00 0.00 0.00 84 1004.5
20260506152903 26 130 3.2 6.4 0.00 0.00 0.00 84 1004.6
20260506152803 26 130 1.6 9.7 0.00 0.00 0.00 84 1004.5
20260506152703 26 130 3.2 9.7 0.00 0.00 0.00 85 1004.5
20260506152604 26 142 3.2 9.7 0.00 0.00 0.00 85 1004.6
20260506152503 26 144 3.2 9.7 0.00 0.00 0.00 85 1004.6
20260506152403 26 144 1.6 9.7 0.00 0.00 0.00 85 1004.6
20260506152305 26 144 1.6 9.7 0.00 0.00 0.00 85 1004.5
20260506152203 26 144 4.8 9.7 0.00 0.00 0.00 85 1004.5
20260506152103 26 144 4.8 9.7 0.00 0.00 0.00 85 1004.4
20260506152005 26 142 6.4 9.7 0.00 0.00 0.00 85 1004.3
20260506151904 26 116 6.4 9.7 0.00 0.00 0.00 85 1004.4
20260506151803 26 103 6.4 9.7 0.00 0.00 0.00 85 1004.5
20260506151704 26 107 4.8 8.0 0.00 0.00 0.00 85 1004.5
20260506151603 26 131 3.2 8.0 0.00 0.00 0.00 85 1004.5
20260506151504 26 135 4.8 9.7 0.00 0.00 0.00 85 1004.5
20260506151402 26 124 6.4 9.7 0.00 0.00 0.00 85 1004.5
20260506151303 26 128 3.2 9.7 0.00 0.00 0.00 85 1004.4
20260506151202 26 148 3.2 9.7 0.00 0.00 0.00 85 1004.4
20260506151102 26 148 3.2 9.7 0.00 0.00 0.00 85 1004.3
20260506151004 26 158 1.6 9.7 0.00 0.00 0.00 85 1004.2
20260506150904 26 145 3.2 9.7 0.00 0.00 0.00 85 1004.2
20260506150802 26 144 4.8 9.7 0.00 0.00 0.00 85 1004.2
20260506150702 26 157 4.8 9.7 0.00 0.00 0.00 85 1004.3
20260506150602 26 152 6.4 9.7 0.00 0.00 0.00 85 1004.2
20260506150503 26 121 6.4 9.7 0.00 0.00 0.00 85 1004.2
20260506150404 26 110 6.4 9.7 0.00 0.00 0.00 85 1004.2
20260506150305 26 127 4.8 9.7 0.00 0.00 0.00 85 1004.1
20260506150203 26 161 3.2 9.7 0.00 0.00 0.00 85 1004.2
20260506150004 26 151 1.6 9.7 0.00 0.00 0.00 85 1004.2
20260506145904 26 141 1.6 9.7 0.00 0.00 0.00 86 1004.2
20260506145803 26 141 3.2 9.7 0.00 0.00 0.00 86 1004.1
20260506145703 26 128 6.4 9.7 0.00 0.00 0.00 86 1004.1
20260506145602 26 111 4.8 11.3 0.00 0.00 0.00 86 1004.1
20260506145503 26 130 3.2 11.3 0.00 0.00 0.00 86 1004.1
20260506145404 26 161 3.2 14.5 0.00 0.00 0.00 86 1004.0
20260506145305 26 142 1.6 14.5 0.00 0.00 0.00 86 1004.1
20260506145202 26 165 4.8 14.5 0.00 0.00 0.00 86 1004.1
20260506145103 26 151 3.2 14.5 0.00 0.00 0.00 87 1004.1
20260506145002 26 117 1.6 14.5 0.00 0.00 0.00 86 1004.2
20260506144903 26 116 4.8 14.5 0.00 0.00 0.00 86 1004.1
20260506144803 26 113 9.7 14.5 0.00 0.00 0.00 86 1004.1
20260506144703 26 102 9.7 14.5 0.00 0.00 0.00 86 1004.1
20260506144603 26 106 11.3 14.5 0.00 0.00 0.00 86 1004.0
20260506144504 26 107 8.0 14.5 0.00 0.00 0.00 87 1004.0
20260506144404 26 104 6.4 14.5 0.00 0.00 0.00 87 1004.0
20260506144304 26 104 4.8 14.5 0.00 0.00 0.00 87 1003.9
20260506144202 26 100 4.8 14.5 0.00 0.00 0.00 87 1004.0
20260506144103 26 135 6.4 17.7 0.00 0.00 0.00 87 1004.0
20260506144003 26 137 8.0 17.7 0.00 0.00 0.00 87 1003.9
20260506143905 26 92 6.4 17.7 0.00 0.00 0.00 87 1003.9
20260506143803 26 116 6.4 17.7 0.00 0.00 0.00 87 1003.9
20260506143703 26 127 4.8 17.7 0.00 0.00 0.00 87 1003.8
20260506143602 26 127 6.4 17.7 0.00 0.00 0.00 88 1003.8
20260506143506 26 148 8.0 17.7 0.00 0.00 0.00 88 1003.8
20260506143404 26 140 6.4 17.7 0.00 0.00 0.00 87 1003.7
20260506143303 26 134 8.0 17.7 0.00 0.00 0.00 87 1003.7
20260506143202 25 113 11.3 17.7 0.00 0.00 0.00 87 1003.7
20260506143103 25 99 11.3 16.1 0.00 0.00 0.00 87 1003.6
20260506143005 25 106 11.3 16.1 0.00 0.00 0.00 88 1003.6
20260506142902 25 106 11.3 16.1 0.00 0.00 0.00 88 1003.6
20260506142802 25 103 11.3 16.1 0.00 0.00 0.00 88 1003.6
20260506142704 25 104 9.7 14.5 0.00 0.00 0.00 88 1003.5
20260506142603 25 110 9.7 17.7 0.00 0.00 0.00 88 1003.6
20260506142504 25 86 9.7 17.7 0.00 0.00 0.00 88 1003.6
20260506142402 25 116 9.7 17.7 0.00 0.00 0.00 88 1003.5
20260506142302 25 102 9.7 17.7 0.00 0.00 0.00 88 1003.6
20260506142203 25 107 8.0 17.7 0.00 0.00 0.00 88 1003.6
20260506142102 25 106 8.0 17.7 0.00 0.00 0.00 88 1003.6
20260506142004 25 111 9.7 17.7 0.00 0.00 0.00 88 1003.6
20260506141903 25 106 9.7 17.7 0.00 0.00 0.00 88 1003.6
20260506141802 25 111 9.7 17.7 0.00 0.00 0.00 88 1003.7
20260506141704 25 97 11.3 17.7 0.00 0.00 0.00 88 1003.6
20260506141602 25 109 9.7 16.1 0.00 0.00 0.00 88 1003.6
20260506141503 25 117 8.0 16.1 0.00 0.00 0.00 88 1003.7
20260506141403 25 111 8.0 14.5 0.00 0.00 0.00 88 1003.6
20260506141304 25 149 8.0 14.5 0.00 0.00 0.00 88 1003.7
20260506141202 25 106 6.4 11.3 0.00 0.00 0.00 88 1003.7
20260506141102 25 158 6.4 11.3 0.00 0.00 0.00 89 1003.8
20260506141003 25 117 6.4 11.3 0.00 0.00 0.00 89 1003.8
20260506140904 25 140 3.2 11.3 0.00 0.00 0.00 89 1003.8
20260506140803 25 124 1.6 11.3 0.00 0.00 0.00 89 1003.8
20260506140701 25 124 3.2 11.3 0.00 0.00 0.00 89 1003.8
20260506140604 25 123 6.4 11.3 0.00 0.00 0.00 89 1003.8
20260506140502 25 118 6.4 11.3 0.00 0.00 0.00 89 1003.8
20260506140403 25 111 6.4 11.3 0.00 0.00 0.00 89 1003.8
20260506140301 25 109 8.0 11.3 0.00 0.00 0.00 89 1003.8
20260506140154 25 104 6.4 11.3 0.00 0.00 0.00 89 1003.8
20260506140052 25 103 4.8 11.3 0.00 0.00 0.00 89 1003.8
20260506135951 25 103 6.4 11.3 0.00 0.00 0.00 89 1003.8
20260506135851 25 99 6.4 11.3 0.00 0.00 0.00 89 1003.9
20260506135752 25 120 8.0 11.3 0.00 0.00 0.00 90 1003.9
20260506135650 25 113 6.4 11.3 0.00 0.00 0.00 90 1003.9
20260506135551 25 96 3.2 9.7 0.00 0.00 0.00 90 1003.9
20260506135449 25 173 3.2 9.7 0.00 0.00 0.00 90 1003.9
20260506135350 25 118 1.6 9.7 0.00 0.00 0.00 90 1003.9
20260506135251 25 110 1.6 9.7 0.00 0.00 0.00 90 1003.9
20260506135150 25 110 3.2 9.7 0.00 0.00 0.00 90 1003.8
20260506135051 25 110 6.4 9.7 0.00 0.00 0.00 90 1003.8
20260506134951 25 104 4.8 9.7 0.00 0.00 0.00 90 1003.8
20260506134851 25 109 4.8 9.7 0.00 0.00 0.00 90 1003.8
20260506134750 25 107 3.2 9.7 0.00 0.00 0.00 90 1003.7
20260506134650 25 116 3.2 9.7 0.00 0.00 0.00 90 1003.8
20260506134549 25 110 4.8 9.7 0.00 0.00 0.00 90 1003.8
20260506134449 25 152 4.8 9.7 0.00 0.00 0.00 90 1003.7
20260506134349 25 130 4.8 9.7 0.00 0.00 0.00 91 1003.8
20260506134249 25 138 4.8 9.7 0.00 0.00 0.00 91 1003.9
20260506134149 25 133 6.4 9.7 0.00 0.00 0.00 91 1003.8
20260506134050 25 121 6.4 9.7 0.00 0.00 0.00 91 1003.8
20260506133950 25 103 6.4 9.7 0.00 0.00 0.00 91 1003.8
20260506133850 25 109 8.0 9.7 0.00 0.00 0.00 91 1003.8
20260506133751 25 117 6.4 9.7 0.00 0.00 0.00 91 1003.8
20260506133651 25 128 6.4 9.7 0.00 0.00 0.00 91 1003.8
20260506133550 25 142 6.4 9.7 0.00 0.00 0.00 91 1003.8
20260506133450 25 133 6.4 9.7 0.00 0.00 0.00 91 1003.8
20260506133350 25 137 4.8 8.0 0.00 0.00 0.00 91 1003.8
20260506133249 25 135 3.2 8.0 0.00 0.00 0.00 91 1003.9
20260506133149 25 137 3.2 8.0 0.00 0.00 0.00 91 1004.0
20260506133051 25 137 3.2 8.0 0.00 0.00 0.00 91 1003.9
20260506132951 25 138 3.2 8.0 0.00 0.00 0.00 91 1003.9
20260506132849 25 127 3.2 9.7 0.00 0.00 0.00 91 1003.9
20260506132749 24 131 3.2 9.7 0.00 0.00 0.00 91 1003.9
20260506132650 24 131 3.2 9.7 0.00 0.00 0.00 91 1003.8
20260506132549 24 125 6.4 9.7 0.00 0.00 0.00 91 1003.9
20260506132449 24 116 6.4 9.7 0.00 0.00 0.00 91 1003.8
20260506132350 24 116 6.4 9.7 0.00 0.00 0.00 91 1003.9
20260506132250 24 110 3.2 9.7 0.00 0.00 0.00 92 1003.8
20260506132150 24 110 3.2 9.7 0.00 0.00 0.00 92 1003.9
20260506132050 24 109 6.4 9.7 0.00 0.00 0.00 92 1003.9
20260506131950 24 111 6.4 9.7 0.00 0.00 0.00 92 1003.9
20260506131847 24 99 4.8 8.0 0.00 0.00 0.00 92 1004.0
20260506131742 24 120 4.8 8.0 0.00 0.00 0.00 91 1004.1
20260506131640 24 140 4.8 8.0 0.00 0.00 0.00 91 1004.1
20260506131539 24 125 3.2 8.0 0.00 0.00 0.00 91 1004.1
20260506131431 24 161 3.2 8.0 0.00 0.00 0.00 91 1004.1
20260506131331 24 149 3.2 8.0 0.00 0.00 0.00 92 1004.1
20260506131233 24 148 3.2 8.0 0.00 0.00 0.00 92 1004.2
20260506131131 24 123 4.8 8.0 0.00 0.00 0.00 92 1004.1
20260506131032 24 118 3.2 8.0 0.00 0.00 0.00 92 1004.1
20260506130924 24 144 1.6 8.0 0.00 0.00 0.00 92 1004.1
20260506130824 24 144 3.2 8.0 0.00 0.00 0.00 92 1004.1
20260506130722 24 142 4.8 8.0 0.00 0.00 0.00 92 1004.0
20260506130617 24 171 4.8 8.0 0.00 0.00 0.00 92 1004.1
20260506130517 24 145 3.2 8.0 0.00 0.00 0.00 92 1004.1
20260506130412 24 124 3.2 8.0 0.00 0.00 0.00 92 1004.0
20260506130303 24 123 4.8 8.0 0.00 0.00 0.00 92 1004.0
20260506130203 24 123 4.8 8.0 0.00 0.00 0.00 92 1003.9
20260506130003 24 109 6.4 8.0 0.00 0.00 0.00 92 1004.0
20260506125903 24 118 4.8 8.0 0.00 0.00 0.00 92 1004.0
20260506125803 24 118 4.8 8.0 0.00 0.00 0.00 92 1004.0
20260506125703 24 118 4.8 8.0 0.00 0.00 0.00 92 1004.0
20260506125603 24 172 3.2 11.3 0.00 0.00 0.00 92 1004.0
20260506125502 24 120 4.8 11.3 0.00 0.00 0.00 92 1004.0
20260506125402 24 117 4.8 11.3 0.00 0.00 0.00 92 1004.0
20260506125305 24 118 4.8 11.3 0.00 0.00 0.00 92 1004.0
20260506125204 24 118 4.8 11.3 0.00 0.00 0.00 92 1004.0
20260506125104 24 157 4.8 11.3 0.00 0.00 0.00 92 1003.9
20260506125002 24 111 3.2 11.3 0.00 0.00 0.00 92 1003.9
20260506124903 24 104 3.2 11.3 0.00 0.00 0.00 92 1003.9
20260506124804 24 104 6.4 11.3 0.00 0.00 0.00 92 1004.0
20260506124703 24 102 4.8 11.3 0.00 0.00 0.00 92 1004.0
20260506124602 24 100 3.2 11.3 0.00 0.00 0.00 92 1003.9
20260506124502 24 123 3.2 11.3 0.00 0.00 0.00 92 1004.0
20260506124403 24 118 6.4 11.3 0.00 0.00 0.00 92 1004.0
20260506124304 24 118 4.8 11.3 0.00 0.00 0.00 92 1004.0
20260506124203 24 109 4.8 11.3 0.00 0.00 0.00 92 1004.0
20260506124102 24 114 4.8 11.3 0.00 0.00 0.00 92 1003.9
20260506124002 24 114 6.4 11.3 0.00 0.00 0.00 92 1004.0
20260506123903 24 106 6.4 11.3 0.00 0.00 0.00 92 1003.9
20260506123803 24 104 6.4 11.3 0.00 0.00 0.00 92 1003.9
20260506123703 24 103 6.4 11.3 0.00 0.00 0.00 92 1003.8
20260506123604 24 113 4.8 11.3 0.00 0.00 0.00 92 1003.9
20260506123502 24 134 3.2 11.3 0.00 0.00 0.00 92 1003.9
20260506123402 24 124 6.4 11.3 0.00 0.00 0.00 92 1003.9
20260506123303 24 123 6.4 11.3 0.00 0.00 0.00 92 1003.8
20260506123202 24 107 6.4 11.3 0.00 0.00 0.00 92 1003.9
20260506123103 24 118 4.8 9.7 0.00 0.00 0.00 92 1003.9
20260506123004 24 113 3.2 9.7 0.00 0.00 0.00 92 1003.8
20260506122903 24 107 4.8 9.7 0.00 0.00 0.00 92 1003.8
20260506122804 24 140 6.4 9.7 0.00 0.00 0.00 92 1003.7
20260506122705 24 138 4.8 9.7 0.00 0.00 0.00 92 1003.8
20260506122602 24 120 3.2 9.7 0.00 0.00 0.00 92 1003.7
20260506122504 24 123 4.8 9.7 0.00 0.00 0.00 92 1003.7
20260506122404 24 120 6.4 9.7 0.00 0.00 0.00 92 1003.8
20260506122302 24 130 3.2 6.4 0.00 0.00 0.00 92 1003.8
20260506122203 24 137 3.2 4.8 0.00 0.00 0.00 92 1003.8
20260506122102 24 137 3.2 6.4 0.00 0.00 0.00 92 1003.7
20260506122005 24 138 3.2 6.4 0.00 0.00 0.00 92 1003.7
20260506121904 24 138 1.6 6.4 0.00 0.00 0.00 92 1003.8
20260506121802 23 140 1.6 6.4 0.00 0.00 0.00 92 1003.7
20260506121702 23 140 3.2 6.4 0.00 0.00 0.00 92 1003.8
20260506121603 24 140 3.2 6.4 0.00 0.00 0.00 92 1003.7
20260506121503 23 140 3.2 6.4 0.00 0.00 0.00 92 1003.7
20260506121404 24 140 3.2 6.4 0.00 0.00 0.00 92 1003.7
20260506121316 23 140 3.2 6.4 0.00 0.00 0.00 92 1003.7
20260506121203 23 140 1.6 6.4 0.00 0.00 0.00 92 1003.7
20260506121103 23 145 0.0 4.8 0.00 0.00 0.00 92 1003.6
20260506121006 23 145 1.6 4.8 0.00 0.00 0.00 92 1003.6
20260506120904 23 145 1.6 4.8 0.00 0.00 0.00 92 1003.5
20260506120801 23 145 3.2 4.8 0.00 0.00 0.00 92 1003.5
20260506120703 23 145 3.2 4.8 0.00 0.00 0.00 92 1003.6
20260506120604 23 145 1.6 4.8 0.00 0.00 0.00 92 1003.5
20260506120505 23 145 0.0 4.8 0.00 0.00 0.00 92 1003.6
20260506120403 23 159 0.0 4.8 0.00 0.00 0.00 92 1003.5
20260506120304 23 162 0.0 4.8 0.00 0.00 0.00 92 1003.5
20260506120201 23 162 0.0 8.0 0.00 0.00 0.00 92 1003.5
20260506120004 23 162 1.6 8.0 0.00 0.00 0.00 92 1003.5
20260506115902 23 162 3.2 8.0 0.00 0.00 0.00 92 1003.5
20260506115801 23 162 1.6 8.0 0.00 0.00 0.00 92 1003.5
20260506115702 23 166 0.0 8.0 0.00 0.00 0.00 92 1003.4
20260506115603 23 168 1.6 8.0 0.00 0.00 0.00 92 1003.4
20260506115502 23 169 1.6 8.0 0.00 0.00 0.00 92 1003.4
20260506115402 23 172 3.2 8.0 0.00 0.00 0.00 92 1003.4
20260506115306 23 165 4.8 8.0 0.00 0.00 0.00 92 1003.4
20260506115203 23 159 3.2 6.4 0.00 0.00 0.00 92 1003.4
20260506115103 23 175 3.2 8.0 0.00 0.00 0.00 92 1003.4
20260506115003 23 165 3.2 8.0 0.00 0.00 0.00 92 1003.4
20260506114902 23 166 1.6 8.0 0.00 0.00 0.00 92 1003.4
20260506114802 23 168 0.0 8.0 0.00 0.00 0.00 92 1003.4
20260506114702 23 155 1.6 8.0 0.00 0.00 0.00 92 1003.4
20260506114604 23 152 3.2 8.0 0.00 0.00 0.00 92 1003.3
20260506114503 23 152 3.2 8.0 0.00 0.00 0.00 92 1003.4
20260506114403 23 154 4.8 8.0 0.00 0.00 0.00 92 1003.3
20260506114304 23 172 4.8 8.0 0.00 0.00 0.00 92 1003.3
20260506114202 23 106 3.2 8.0 0.00 0.00 0.00 92 1003.3
20260506114104 23 165 3.2 6.4 0.00 0.00 0.00 92 1003.3
20260506114003 23 168 3.2 9.7 0.00 0.00 0.00 92 1003.3
20260506113902 23 149 3.2 9.7 0.00 0.00 0.00 92 1003.4
20260506113803 23 147 3.2 9.7 0.00 0.00 0.00 92 1003.4
20260506113704 23 172 3.2 9.7 0.00 0.00 0.00 92 1003.4
20260506113603 23 173 3.2 9.7 0.00 0.00 0.00 92 1003.3
20260506113503 23 176 3.2 9.7 0.00 0.00 0.00 92 1003.2
20260506113402 23 178 3.2 9.7 0.00 0.00 0.00 92 1003.3
20260506113303 23 124 3.2 9.7 0.00 0.00 0.00 92 1003.2
20260506113204 23 168 4.8 9.7 0.00 0.00 0.00 92 1003.2
20260506113102 23 109 4.8 9.7 0.00 0.00 0.00 92 1003.1
20260506113003 23 151 3.2 9.7 0.00 0.00 0.00 92 1003.1
20260506112902 23 154 3.2 9.7 0.00 0.00 0.00 92 1003.1
20260506112804 23 158 4.8 9.7 0.00 0.00 0.00 92 1003.1
20260506112703 23 149 3.2 9.7 0.00 0.00 0.00 92 1003.1
20260506112603 23 151 3.2 8.0 0.00 0.00 0.00 92 1003.1
20260506112504 23 155 3.2 8.0 0.00 0.00 0.00 92 1003.1
20260506112403 23 157 4.8 8.0 0.00 0.00 0.00 92 1003.2
20260506112305 23 162 4.8 8.0 0.00 0.00 0.00 92 1003.2
20260506112203 23 169 1.6 4.8 0.00 0.00 0.00 92 1003.2
20260506112103 23 169 1.6 4.8 0.00 0.00 0.00 92 1003.2
20260506112004 23 171 1.6 4.8 0.00 0.00 0.00 92 1003.1
20260506111903 23 171 1.6 4.8 0.00 0.00 0.00 92 1003.1
20260506111802 23 172 1.6 6.4 0.00 0.00 0.00 92 1003.2
20260506111703 23 172 1.6 6.4 0.00 0.00 0.00 92 1003.2
20260506111602 23 182 3.2 6.4 0.00 0.00 0.00 92 1003.1
20260506111503 23 207 3.2 6.4 0.00 0.00 0.00 92 1003.2
20260506111405 23 207 3.2 6.4 0.00 0.00 0.00 92 1003.1
20260506111304 23 162 1.6 6.4 0.00 0.00 0.00 92 1003.1
20260506111203 23 162 1.6 6.4 0.00 0.00 0.00 92 1003.1
20260506111102 23 154 1.6 6.4 0.00 0.00 0.00 92 1003.0
20260506111004 23 155 3.2 6.4 0.00 0.00 0.00 92 1002.9
20260506110903 23 154 3.2 6.4 0.00 0.00 0.00 92 1002.9
20260506110802 23 148 3.2 6.4 0.00 0.00 0.00 92 1002.9
20260506110703 23 148 3.2 6.4 0.00 0.00 0.00 92 1002.9
20260506110602 23 135 3.2 6.4 0.00 0.00 0.00 92 1002.8
20260506110504 23 144 3.2 4.8 0.00 0.00 0.00 92 1002.8
20260506110401 23 144 3.2 4.8 0.00 0.00 0.00 92 1002.8
20260506110304 23 137 3.2 4.8 0.00 0.00 0.00 92 1002.7
20260506110204 23 154 1.6 4.8 0.00 0.00 0.00 92 1002.7
20260506110005 23 152 1.6 4.8 0.00 0.00 0.00 92 1002.8
20260506105902 23 152 1.6 4.8 0.00 0.00 0.00 92 1002.8
20260506105804 23 152 1.6 4.8 0.00 0.00 0.00 92 1002.8
20260506105704 23 152 1.6 4.8 0.00 0.00 0.00 92 1002.8
20260506105603 23 152 3.2 6.4 0.00 0.00 0.00 92 1002.7
20260506105505 23 151 3.2 6.4 0.00 0.00 0.00 92 1002.8
20260506105403 23 154 3.2 6.4 0.00 0.00 0.00 92 1002.8
20260506105304 23 155 3.2 6.4 0.00 0.00 0.00 92 1002.8
20260506105204 23 157 3.2 6.4 0.00 0.00 0.00 92 1002.8
20260506105103 23 162 3.2 6.4 0.00 0.00 0.00 92 1002.8
20260506105004 23 147 3.2 6.4 0.00 0.00 0.00 92 1002.7
20260506104903 23 148 3.2 6.4 0.00 0.00 0.00 92 1002.7
20260506104803 23 148 3.2 6.4 0.00 0.00 0.00 92 1002.7
20260506104701 23 148 3.2 6.4 0.00 0.00 0.00 92 1002.6
20260506104601 23 152 3.2 6.4 0.00 0.00 0.00 92 1002.6
20260506104503 23 155 3.2 6.4 0.00 0.00 0.00 92 1002.6
20260506104403 23 164 3.2 8.0 0.00 0.00 0.00 92 1002.6
20260506104302 23 166 3.2 8.0 0.00 0.00 0.00 92 1002.6
20260506104204 23 171 3.2 8.0 0.00 0.00 0.00 92 1002.7
20260506104101 23 169 3.2 8.0 0.00 0.00 0.00 92 1002.6
20260506104003 23 155 3.2 8.0 0.00 0.00 0.00 92 1002.6
20260506103904 23 155 3.2 8.0 0.00 0.00 0.00 92 1002.5
20260506103803 23 152 3.2 8.0 0.00 0.00 0.00 92 1002.5
20260506103704 23 155 3.2 8.0 0.00 0.00 0.00 92 1002.6
20260506103603 23 155 3.2 8.0 0.00 0.00 0.00 91 1002.6
20260506103502 23 165 3.2 8.0 0.00 0.00 0.00 91 1002.7
20260506103403 23 123 3.2 6.4 0.00 0.00 0.00 91 1002.7
20260506103302 23 121 3.2 6.4 0.00 0.00 0.00 91 1002.7
20260506103203 23 157 3.2 6.4 0.00 0.00 0.00 91 1002.7
20260506103104 23 158 1.6 6.4 0.00 0.00 0.00 91 1002.7
20260506103002 23 158 3.2 11.3 0.00 0.00 0.00 91 1002.6
20260506102903 23 158 3.2 11.3 0.00 0.00 0.00 91 1002.6
20260506102803 23 162 1.6 11.3 0.00 0.00 0.00 91 1002.7
20260506102702 23 162 3.2 11.3 0.00 0.00 0.00 91 1002.8
20260506102603 23 164 3.2 11.3 0.00 0.00 0.00 91 1002.8
20260506102504 23 148 3.2 11.3 0.00 0.00 0.00 91 1002.8
20260506102403 23 151 1.6 11.3 0.00 0.00 0.00 91 1002.8
20260506102305 23 151 3.2 11.3 0.00 0.00 0.00 91 1002.9
20260506102203 23 154 4.8 11.3 0.00 0.00 0.00 91 1002.9
20260506102103 23 144 4.8 11.3 0.00 0.00 0.00 91 1002.8
20260506102004 23 138 3.2 6.4 0.00 0.00 0.00 91 1002.8
20260506101903 23 148 3.2 6.4 0.00 0.00 0.00 91 1002.8
20260506101802 23 147 3.2 6.4 0.00 0.00 0.00 91 1002.8
20260506101702 23 137 1.6 6.4 0.00 0.00 0.00 91 1002.7
20260506101603 23 135 1.6 6.4 0.00 0.00 0.00 91 1002.6
20260506101503 23 135 3.2 6.4 0.00 0.00 0.00 91 1002.6
20260506101403 23 137 3.2 9.7 0.00 0.00 0.00 91 1002.6
20260506101303 23 123 3.2 9.7 0.00 0.00 0.00 91 1002.6
20260506101202 23 141 3.2 9.7 0.00 0.00 0.00 91 1002.6
20260506101103 23 158 3.2 9.7 0.00 0.00 0.00 91 1002.7
20260506101005 23 161 4.8 9.7 0.00 0.00 0.00 91 1002.7
20260506100903 23 135 3.2 9.7 0.00 0.00 0.00 91 1002.7
20260506100802 23 154 3.2 9.7 0.00 0.00 0.00 91 1002.8
20260506100704 23 165 3.2 9.7 0.00 0.00 0.00 91 1002.7
20260506100601 23 166 3.2 9.7 0.00 0.00 0.00 91 1002.8
20260506100504 23 154 3.2 9.7 0.00 0.00 0.00 91 1002.7
20260506100404 23 161 1.6 9.7 0.00 0.00 0.00 90 1002.7
20260506100303 23 148 1.6 9.7 0.00 0.00 0.00 90 1002.7
20260506100203 23 148 3.2 9.7 0.00 0.00 0.00 90 1002.6
20260506100104 23 147 4.8 9.7 0.00 0.00 0.00 90 1002.6
20260506100004 23 152 3.2 9.7 0.00 0.00 0.00 90 1002.6
20260506095902 23 138 3.2 9.7 0.00 0.00 0.00 90 1002.6
20260506095802 23 142 4.8 9.7 0.00 0.00 0.00 90 1002.6
20260506095702 23 155 6.4 9.7 0.00 0.00 0.00 90 1002.5
20260506095602 23 157 3.2 9.7 0.00 0.00 0.00 90 1002.5
20260506095503 23 162 3.2 9.7 0.00 0.00 0.00 90 1002.5
20260506095402 23 165 3.2 9.7 0.00 0.00 0.00 90 1002.5
20260506095305 24 158 3.2 9.7 0.00 0.00 0.00 90 1002.6
20260506095203 24 125 4.8 9.7 0.00 0.00 0.00 90 1002.5
20260506095104 24 169 4.8 9.7 0.00 0.00 0.00 90 1002.4
20260506095004 24 141 4.8 9.7 0.00 0.00 0.00 90 1002.5
20260506094903 24 166 6.4 9.7 0.00 0.00 0.00 90 1002.4
20260506094803 24 159 4.8 9.7 0.00 0.00 0.00 90 1002.6
20260506094702 24 138 3.2 9.7 0.00 0.00 0.00 90 1002.5
20260506094603 24 162 3.2 9.7 0.00 0.00 0.00 90 1002.5
20260506094505 24 158 4.8 9.7 0.00 0.00 0.00 90 1002.5
20260506094402 24 195 3.2 9.7 0.00 0.00 0.00 90 1002.5
20260506094304 24 162 3.2 11.3 0.00 0.00 0.00 90 1002.5
20260506094201 24 165 3.2 11.3 0.00 0.00 0.00 90 1002.5
20260506094103 24 166 4.8 14.5 0.00 0.00 0.00 90 1002.4
20260506094005 24 144 3.2 14.5 0.00 0.00 0.00 90 1002.4
20260506093902 24 157 4.8 14.5 0.00 0.00 0.00 90 1002.5
20260506093803 24 158 4.8 14.5 0.00 0.00 0.00 90 1002.4
20260506093702 24 173 4.8 14.5 0.00 0.00 0.00 90 1002.4
20260506093603 24 169 6.4 14.5 0.00 0.00 0.00 90 1002.4
20260506093504 24 166 6.4 14.5 0.00 0.00 0.00 90 1002.4
20260506093403 24 141 6.4 14.5 0.00 0.00 0.00 90 1002.3
20260506093303 24 152 4.8 14.5 0.00 0.00 0.00 90 1002.3
20260506093201 24 127 3.2 14.5 0.00 0.00 0.00 90 1002.2
20260506093103 24 165 3.2 17.7 0.00 0.00 0.00 90 1002.3
20260506093004 24 183 3.2 17.7 0.00 0.00 0.00 90 1002.3
20260506092902 24 154 3.2 17.7 0.00 0.00 0.00 90 1002.3
20260506092804 24 157 4.8 17.7 0.00 0.00 0.00 90 1002.3
20260506092701 24 138 4.8 17.7 0.00 0.00 0.00 90 1002.3
20260506092603 24 130 6.4 17.7 0.00 0.00 0.00 90 1002.2
20260506092502 24 173 6.4 17.7 0.00 0.00 0.00 90 1002.2
20260506092403 24 141 6.4 17.7 0.00 0.00 0.00 90 1002.3
20260506092306 24 159 8.0 17.7 0.00 0.00 0.00 90 1002.2
20260506092203 24 147 6.4 17.7 0.00 0.00 0.00 90 1002.2
20260506092103 24 159 4.8 14.5 0.00 0.00 0.00 90 1002.2
20260506092003 24 144 4.8 14.5 0.00 0.00 0.00 89 1002.3
20260506091904 24 138 6.4 17.7 0.00 0.00 0.00 89 1002.3
20260506091802 24 151 4.8 17.7 0.00 0.00 0.00 89 1002.4
20260506091702 24 159 4.8 17.7 0.00 0.00 0.00 89 1002.3
20260506091603 24 147 6.4 17.7 0.00 0.00 0.00 89 1002.4
20260506091504 24 94 6.4 17.7 0.00 0.00 0.00 89 1002.4
20260506091403 24 124 4.8 17.7 0.00 0.00 0.00 89 1002.3
20260506091302 24 142 6.4 17.7 0.00 0.00 0.00 89 1002.3
20260506091203 24 121 8.0 17.7 0.00 0.00 0.00 89 1002.3
20260506091105 24 186 9.7 17.7 0.00 0.00 0.00 89 1002.3
20260506091003 24 149 6.4 17.7 0.00 0.00 0.00 89 1002.3
20260506090901 24 142 3.2 14.5 0.00 0.00 0.00 89 1002.3
20260506090801 24 148 3.2 14.5 0.00 0.00 0.00 89 1002.3
20260506090703 24 142 6.4 14.5 0.00 0.00 0.00 89 1002.3
20260506090605 24 171 8.0 14.5 0.00 0.00 0.00 89 1002.3
20260506090503 24 195 8.0 14.5 0.00 0.00 0.00 89 1002.3
20260506090402 24 134 6.4 14.5 0.00 0.00 0.00 89 1002.3
20260506090302 24 142 4.8 14.5 0.00 0.00 0.00 89 1002.3
20260506090203 24 147 6.4 14.5 0.00 0.00 0.00 89 1002.3
20260506090004 24 145 8.0 14.5 0.00 0.00 0.00 89 1002.4
20260506085904 24 188 8.0 14.5 0.00 0.00 0.00 89 1002.3
20260506085802 24 154 6.4 11.3 0.00 0.00 0.00 89 1002.3
20260506085704 24 141 4.8 17.7 0.00 0.00 0.00 89 1002.4
20260506085604 24 133 4.8 17.7 0.00 0.00 0.00 89 1002.4
20260506085504 24 166 4.8 17.7 0.00 0.00 0.00 89 1002.4
20260506085403 24 152 6.4 17.7 0.00 0.00 0.00 89 1002.4
20260506085306 24 176 4.8 17.7 0.00 0.00 0.00 89 1002.4
20260506085204 24 133 3.2 17.7 0.00 0.00 0.00 89 1002.6
20260506085103 24 137 4.8 17.7 0.00 0.00 0.00 89 1002.5
20260506085004 24 138 6.4 17.7 0.00 0.00 0.00 89 1002.5
20260506084903 24 137 8.0 17.7 0.00 0.00 0.00 89 1002.5
20260506084804 24 255 8.0 17.7 0.00 0.00 0.00 89 1002.5
20260506084703 24 155 6.4 9.7 0.00 0.00 0.00 89 1002.5
20260506084604 24 188 4.8 9.7 0.00 0.00 0.00 89 1002.6
20260506084505 24 165 4.8 9.7 0.00 0.00 0.00 89 1002.6
20260506084403 24 168 4.8 9.7 0.00 0.00 0.00 89 1002.7
20260506084302 24 159 4.8 11.3 0.00 0.00 0.00 89 1002.7
20260506084203 24 147 3.2 11.3 0.00 0.00 0.00 89 1002.6
20260506084103 24 162 3.2 11.3 0.00 0.00 0.00 89 1002.6
20260506084003 24 171 3.2 11.3 0.00 0.00 0.00 89 1002.5
20260506083903 24 96 3.2 11.3 0.00 0.00 0.00 89 1002.5
20260506083803 24 159 4.8 11.3 0.00 0.00 0.00 89 1002.5
20260506083702 24 158 6.4 11.3 0.00 0.00 0.00 89 1002.5
20260506083603 24 176 6.4 11.3 0.00 0.00 0.00 89 1002.6
20260506083504 24 140 6.4 11.3 0.00 0.00 0.00 89 1002.5
20260506083402 24 154 6.4 11.3 0.00 0.00 0.00 89 1002.5
20260506083305 24 125 4.8 9.7 0.00 0.00 0.00 89 1002.6
20260506083203 24 175 6.4 9.7 0.00 0.00 0.00 89 1002.6
20260506083104 24 159 6.4 9.7 0.00 0.00 0.00 89 1002.5
20260506083004 24 133 4.8 9.7 0.00 0.00 0.00 89 1002.5
20260506082905 25 141 6.4 9.7 0.00 0.00 0.00 89 1002.5
20260506082803 24 157 4.8 9.7 0.00 0.00 0.00 89 1002.5
20260506082702 24 154 4.8 9.7 0.00 0.00 0.00 89 1002.5
20260506082604 24 144 4.8 9.7 0.00 0.00 0.00 89 1002.6
20260506082503 24 144 6.4 9.7 0.00 0.00 0.00 89 1002.6
20260506082402 24 182 6.4 9.7 0.00 0.00 0.00 89 1002.6
20260506082304 24 154 4.8 9.7 0.00 0.00 0.00 89 1002.7
20260506082203 24 149 4.8 9.7 0.00 0.00 0.00 89 1002.6
20260506082104 25 166 3.2 9.7 0.00 0.00 0.00 89 1002.7
20260506082004 25 141 3.2 9.7 0.00 0.00 0.00 89 1002.7
20260506081904 25 166 3.2 9.7 0.00 0.00 0.00 89 1002.7
20260506081804 24 155 4.8 9.7 0.00 0.00 0.00 89 1002.7
20260506081702 24 164 6.4 9.7 0.00 0.00 0.00 89 1002.7
20260506081603 24 142 6.4 9.7 0.00 0.00 0.00 89 1002.7
20260506081502 24 159 3.2 9.7 0.00 0.00 0.00 89 1002.7
20260506081402 24 188 4.8 9.7 0.00 0.00 0.00 89 1002.7
20260506081303 25 164 4.8 9.7 0.00 0.00 0.00 89 1002.8
20260506081203 24 165 4.8 9.7 0.00 0.00 0.00 89 1002.7
20260506081104 24 165 4.8 9.7 0.00 0.00 0.00 89 1002.7
20260506081002 24 142 6.4 9.7 0.00 0.00 0.00 89 1002.8
20260506080904 24 145 6.4 9.7 0.00 0.00 0.00 89 1002.8
20260506080804 24 147 4.8 9.7 0.00 0.00 0.00 89 1002.8
20260506080703 24 168 4.8 9.7 0.00 0.00 0.00 89 1002.8
20260506080603 24 154 4.8 9.7 0.00 0.00 0.00 89 1002.8
20260506080503 24 161 4.8 9.7 0.00 0.00 0.00 89 1002.8
20260506080404 24 157 3.2 9.7 0.00 0.00 0.00 89 1002.7
20260506080302 24 123 3.2 9.7 0.00 0.00 0.00 89 1002.7
20260506080203 24 140 4.8 9.7 0.00 0.00 0.00 89 1002.7
20260506080104 24 135 3.2 9.7 0.00 0.00 0.00 89 1002.7
20260506073504 24 161 4.8 9.7 0.00 0.00 0.00 89 1003.1
20260506073403 24 144 4.8 9.7 0.00 0.00 0.00 89 1003.1
20260506073302 24 165 4.8 9.7 0.00 0.00 0.00 89 1003.2
20260506073204 24 176 3.2 8.0 0.00 0.00 0.00 89 1003.1
20260506073102 24 138 3.2 8.0 0.00 0.00 0.00 89 1003.1
20260506073003 24 158 3.2 8.0 0.00 0.00 0.00 89 1003.2
20260506072903 24 149 1.6 8.0 0.00 0.00 0.00 89 1003.1
20260506072804 24 171 3.2 8.0 0.00 0.00 0.00 89 1003.2
20260506072704 24 179 4.8 8.0 0.00 0.00 0.00 89 1003.2
20260506072603 24 142 3.2 8.0 0.00 0.00 0.00 89 1003.2
20260506072503 25 154 3.2 8.0 0.00 0.00 0.00 89 1003.2
20260506072403 24 117 3.2 8.0 0.00 0.00 0.00 89 1003.3
20260506072305 25 157 3.2 8.0 0.00 0.00 0.00 89 1003.3
20260506072202 25 138 3.2 8.0 0.00 0.00 0.00 89 1003.3
20260506072102 24 133 3.2 8.0 0.00 0.00 0.00 89 1003.2
20260506072004 25 171 1.6 8.0 0.00 0.00 0.00 89 1003.3
20260506071903 25 161 1.6 8.0 0.00 0.00 0.00 89 1003.3
20260506071803 25 161 3.2 14.5 0.00 0.00 0.00 89 1003.3
20260506071703 25 161 3.2 14.5 0.00 0.00 0.00 89 1003.4
20260506071604 25 175 1.6 14.5 0.00 0.00 0.00 89 1003.3
20260506071503 25 188 3.2 14.5 0.00 0.00 0.00 89 1003.4
20260506071403 25 172 4.8 14.5 0.00 0.00 0.00 89 1003.3
20260506071301 25 145 3.2 14.5 0.00 0.00 0.00 89 1003.4
20260506071202 25 161 3.2 14.5 0.00 0.00 0.00 89 1003.3
20260506071104 25 175 4.8 14.5 0.00 0.00 0.00 89 1003.3
20260506071005 25 134 4.8 14.5 0.00 0.00 0.00 89 1003.3
20260506070904 25 138 4.8 14.5 0.00 0.00 0.00 89 1003.3
20260506070805 25 141 3.2 8.0 0.00 0.00 0.00 89 1003.3
20260506070702 25 166 3.2 8.0 0.00 0.00 0.00 89 1003.4
20260506070603 25 155 3.2 8.0 0.00 0.00 0.00 89 1003.3
20260506070503 25 151 3.2 8.0 0.00 0.00 0.00 89 1003.3
20260506070403 25 144 3.2 8.0 0.00 0.00 0.00 89 1003.2
20260506070304 25 144 3.2 8.0 0.00 0.00 0.00 89 1003.3
20260506070203 25 164 3.2 8.0 0.00 0.00 0.00 89 1003.2
20260506070103 25 202 3.2 8.0 0.00 0.00 0.00 89 1003.2
20260506062505 25 144 3.2 9.7 0.00 0.00 0.00 89 1003.4
20260506062402 25 186 3.2 9.7 0.00 0.00 0.00 89 1003.4
20260506062305 25 135 6.4 9.7 0.00 0.00 0.00 89 1003.4
20260506062203 25 197 4.8 9.7 0.00 0.00 0.00 89 1003.4
20260506062103 25 135 3.2 6.4 0.00 0.00 0.00 89 1003.4
20260506062002 25 152 4.8 6.4 0.00 0.00 0.00 89 1003.4
20260506061902 25 173 3.2 6.4 0.00 0.00 0.00 89 1003.5
20260506061803 25 145 3.2 6.4 0.00 0.00 0.00 89 1003.5
20260506061702 25 183 4.8 6.4 0.00 0.00 0.00 89 1003.5
20260506061603 -17 0.0 0.0 0.00 0.00 0.00 1003.4
20260506061504 -17 0.0 0.0 0.00 0.00 0.00 1003.5
20260506061404 -17 0.0 0.0 0.00 0.00 0.00 1003.5
20260506061303 -17 140 6.4 6.4 0.00 0.00 0.00 1003.5
20260506061203 25 140 6.4 8.0 0.00 0.00 0.00 89 1003.5
20260506061103 25 140 6.4 8.0 0.00 0.00 0.00 89 1003.5
20260506061004 25 140 6.4 8.0 0.00 0.00 0.00 89 1003.5
20260506060904 25 140 6.4 8.0 0.00 0.00 0.00 89 1003.4
20260506060703 25 140 6.4 8.0 0.00 0.00 0.00 89 1003.5
20260506060602 25 140 6.4 8.0 0.00 0.00 0.00 89 1003.5
20260506060504 25 140 6.4 8.0 0.00 0.00 0.00 89 1003.5
20260506060404 25 140 6.4 8.0 0.00 0.00 0.00 89 1003.5
20260506060304 25 154 6.4 8.0 0.00 0.00 0.00 89 1003.6
20260506060203 25 135 6.4 8.0 0.00 0.00 0.00 89 1003.6
20260506051404 25 157 3.2 8.0 0.00 0.00 0.00 89 1003.4
20260506051303 25 161 3.2 8.0 0.00 0.00 0.00 89 1003.4
20260506051202 25 164 3.2 8.0 0.00 0.00 0.00 89 1003.4
20260506051102 25 134 1.6 9.7 0.00 0.00 0.00 89 1003.4
20260506051003 25 137 3.2 11.3 0.00 0.00 0.00 89 1003.3
20260506050902 25 135 4.8 11.3 0.00 0.00 0.00 89 1003.3
20260506050803 25 135 4.8 11.3 0.00 0.00 0.00 89 1003.4
20260506050702 25 166 4.8 11.3 0.00 0.00 0.00 89 1003.5
20260506050602 25 142 3.2 11.3 0.00 0.00 0.00 89 1003.4
20260506050502 25 147 3.2 11.3 0.00 0.00 0.00 89 1003.4
20260506050405 25 158 4.8 11.3 0.00 0.00 0.00 89 1003.4
20260506050302 25 158 4.8 11.3 0.00 0.00 0.00 88 1003.3
20260506050202 25 111 4.8 11.3 0.00 0.00 0.00 88 1003.4
20260506050104 25 131 6.4 11.3 0.00 0.00 0.00 88 1003.5
20260506045102 25 140 4.8 11.3 0.00 0.00 0.00 88 1003.1
20260506045002 25 172 6.4 11.3 0.00 0.00 0.00 88 1003.1
20260506044902 25 165 6.4 9.7 0.00 0.00 0.00 88 1003.2
20260506044804 25 113 4.8 9.7 0.00 0.00 0.00 88 1003.1
20260506044703 25 135 4.8 9.7 0.00 0.00 0.00 88 1003.2
20260506044603 25 128 6.4 9.7 0.00 0.00 0.00 88 1003.2
20260506044503 25 142 6.4 9.7 0.00 0.00 0.00 87 1003.2
20260506044403 25 128 4.8 9.7 0.00 0.00 0.00 87 1003.2
20260506044303 25 118 4.8 6.4 0.00 0.00 0.00 87 1003.2
20260506044203 25 135 3.2 6.4 0.00 0.00 0.00 87 1003.3
20260506044102 25 159 3.2 8.0 0.00 0.00 0.00 87 1003.3
20260506044002 25 145 3.2 8.0 0.00 0.00 0.00 87 1003.3
20260506043902 25 142 3.2 8.0 0.00 0.00 0.00 87 1003.4
20260506043802 25 127 4.8 8.0 0.00 0.00 0.00 87 1003.3
20260506043703 25 114 4.8 8.0 0.00 0.00 0.00 87 1003.5
20260506043604 25 141 4.8 8.0 0.00 0.00 0.00 87 1003.5
20260506043503 25 142 4.8 9.7 0.00 0.00 0.00 87 1003.5
20260506043404 25 157 4.8 9.7 0.00 0.00 0.00 87 1003.5
20260506043303 25 154 4.8 9.7 0.00 0.00 0.00 87 1003.5
20260506043203 25 145 3.2 9.7 0.00 0.00 0.00 87 1003.5
20260506043101 25 123 3.2 9.7 0.00 0.00 0.00 87 1003.4
20260506043006 25 123 4.8 16.1 0.00 0.00 0.00 87 1003.4
20260506042904 25 124 4.8 16.1 0.00 0.00 0.00 87 1003.4
20260506042803 25 166 6.4 16.1 0.00 0.00 0.00 87 1003.4
20260506042704 25 152 6.4 16.1 0.00 0.00 0.00 87 1003.3
20260506042603 25 125 6.4 16.1 0.00 0.00 0.00 87 1003.4
20260506042502 25 169 4.8 16.1 0.00 0.00 0.00 87 1003.4
20260506042402 25 144 4.8 16.1 0.00 0.00 0.00 87 1003.4
20260506042305 25 179 4.8 16.1 0.00 0.00 0.00 87 1003.3
20260506042202 25 199 6.4 16.1 0.00 0.00 0.00 86 1003.4
20260506042103 25 162 8.0 16.1 0.00 0.00 0.00 86 1003.3
20260506042002 25 137 6.4 16.1 0.00 0.00 0.00 86 1003.3
20260506041905 25 135 4.8 16.1 0.00 0.00 0.00 86 1003.4
20260506041801 25 193 4.8 16.1 0.00 0.00 0.00 86 1003.4
20260506041702 25 154 4.8 16.1 0.00 0.00 0.00 86 1003.3
20260506041603 25 188 6.4 16.1 0.00 0.00 0.00 86 1003.3
20260506041506 25 121 6.4 16.1 0.00 0.00 0.00 86 1003.3
20260506041402 25 110 4.8 16.1 0.00 0.00 0.00 86 1003.3
20260506041302 25 151 3.2 16.1 0.00 0.00 0.00 86 1003.3
20260506041204 25 162 6.4 16.1 0.00 0.00 0.00 86 1003.3
20260506041102 25 128 8.0 16.1 0.00 0.00 0.00 86 1003.3
20260506041002 25 199 3.2 14.5 0.00 0.00 0.00 86 1003.3
20260506040903 25 111 4.8 14.5 0.00 0.00 0.00 86 1003.3
20260506040802 25 110 4.8 14.5 0.00 0.00 0.00 86 1003.2
20260506040704 25 151 4.8 14.5 0.00 0.00 0.00 86 1003.3
20260506040602 25 131 6.4 14.5 0.00 0.00 0.00 86 1003.2
20260506040504 25 155 6.4 14.5 0.00 0.00 0.00 86 1003.2
20260506040402 25 164 6.4 14.5 0.00 0.00 0.00 86 1003.1
20260506040303 25 152 3.2 14.5 0.00 0.00 0.00 85 1003.1
20260506040204 25 157 3.2 14.5 0.00 0.00 0.00 85 1003.1
20260506040005 25 193 6.4 14.5 0.00 0.00 0.00 85 1003.1
20260506035901 25 171 4.8 14.5 0.00 0.00 0.00 85 1003.0
20260506035802 25 166 3.2 14.5 0.00 0.00 0.00 85 1003.0
20260506035701 25 172 4.8 14.5 0.00 0.00 0.00 85 1003.0
20260506035602 25 164 8.0 14.5 0.00 0.00 0.00 85 1003.1
20260506035504 25 127 6.4 14.5 0.00 0.00 0.00 85 1003.1
20260506035404 25 131 4.8 11.3 0.00 0.00 0.00 85 1003.1
20260506035305 25 116 6.4 9.7 0.00 0.00 0.00 85 1003.1
20260506035204 25 188 6.4 9.7 0.00 0.00 0.00 85 1003.0
20260506035102 25 138 6.4 9.7 0.00 0.00 0.00 85 1003.0
20260506035002 25 142 6.4 9.7 0.00 0.00 0.00 85 1003.1
20260506034903 25 175 6.4 9.7 0.00 0.00 0.00 85 1003.1
20260506034802 25 169 6.4 11.3 0.00 0.00 0.00 85 1003.1
20260506034703 25 131 4.8 11.3 0.00 0.00 0.00 85 1003.1
20260506034603 25 213 6.4 11.3 0.00 0.00 0.00 85 1003.1
20260506034504 25 149 6.4 11.3 0.00 0.00 0.00 85 1003.2
20260506034402 25 128 6.4 11.3 0.00 0.00 0.00 85 1003.1
20260506034304 25 124 6.4 11.3 0.00 0.00 0.00 85 1003.2
20260506034202 25 128 6.4 11.3 0.00 0.00 0.00 85 1003.2
20260506034103 25 151 6.4 11.3 0.00 0.00 0.00 85 1003.1
20260506034002 25 135 6.4 11.3 0.00 0.00 0.00 85 1003.2
20260506033903 25 144 6.4 11.3 0.00 0.00 0.00 85 1003.2
20260506033803 25 137 4.8 9.7 0.00 0.00 0.00 85 1003.2
20260506033702 25 180 3.2 9.7 0.00 0.00 0.00 85 1003.1
20260506033603 25 182 3.2 9.7 0.00 0.00 0.00 85 1003.1
20260506033504 25 166 3.2 9.7 0.00 0.00 0.00 85 1003.1
20260506033404 25 135 3.2 9.7 0.00 0.00 0.00 85 1003.1
20260506033302 25 144 3.2 9.7 0.00 0.00 0.00 85 1003.1
20260506033202 25 165 4.8 9.7 0.00 0.00 0.00 85 1003.0
20260506033105 25 158 4.8 9.7 0.00 0.00 0.00 85 1003.0
20260506033003 25 138 4.8 9.7 0.00 0.00 0.00 85 1002.9
20260506032903 25 162 3.2 8.0 0.00 0.00 0.00 85 1002.9
20260506032803 25 161 3.2 9.7 0.00 0.00 0.00 85 1002.8
20260506032703 25 179 3.2 9.7 0.00 0.00 0.00 85 1002.8
20260506032602 25 176 3.2 9.7 0.00 0.00 0.00 85 1002.8
20260506032503 25 164 4.8 9.7 0.00 0.00 0.00 85 1002.8
20260506032404 25 172 4.8 14.5 0.00 0.00 0.00 85 1002.8
20260506032305 25 162 4.8 14.5 0.00 0.00 0.00 85 1002.7
20260506032203 25 135 6.4 14.5 0.00 0.00 0.00 85 1002.7
20260506032103 25 157 4.8 14.5 0.00 0.00 0.00 85 1002.6
20260506032003 25 158 4.8 16.1 0.00 0.00 0.00 85 1002.7
20260506031903 25 171 4.8 16.1 0.00 0.00 0.00 85 1002.6
20260506031803 25 135 4.8 16.1 0.00 0.00 0.00 85 1002.6
20260506031703 25 137 6.4 16.1 0.00 0.00 0.00 85 1002.5
20260506031603 25 190 8.0 16.1 0.00 0.00 0.00 85 1002.5
20260506031503 25 141 8.0 16.1 0.00 0.00 0.00 85 1002.6
20260506031403 25 188 6.4 16.1 0.00 0.00 0.00 85 1002.6
20260506031304 25 149 6.4 16.1 0.00 0.00 0.00 85 1002.5
20260506031202 25 197 8.0 16.1 0.00 0.00 0.00 85 1002.5
20260506031102 25 182 8.0 16.1 0.00 0.00 0.00 85 1002.4
20260506031004 25 137 8.0 16.1 0.00 0.00 0.00 85 1002.4
20260506030904 25 120 8.0 16.1 0.00 0.00 0.00 85 1002.3
20260506030801 25 189 8.0 16.1 0.00 0.00 0.00 85 1002.4
20260506030703 25 165 6.4 16.1 0.00 0.00 0.00 85 1002.3
20260506030603 25 130 4.8 16.1 0.00 0.00 0.00 85 1002.3
20260506030503 25 158 4.8 16.1 0.00 0.00 0.00 85 1002.3
20260506030402 25 147 8.0 16.1 0.00 0.00 0.00 84 1002.3
20260506030302 25 128 9.7 16.1 0.00 0.00 0.00 84 1002.3
20260506030203 25 154 8.0 16.1 0.00 0.00 0.00 85 1002.4
20260506030003 25 113 6.4 11.3 0.00 0.00 0.00 85 1002.4
20260506025903 25 178 6.4 11.3 0.00 0.00 0.00 85 1002.4
20260506025803 25 196 6.4 11.3 0.00 0.00 0.00 84 1002.4
20260506025703 25 149 6.4 11.3 0.00 0.00 0.00 84 1002.3
20260506025602 25 152 6.4 14.5 0.00 0.00 0.00 84 1002.4
20260506025505 25 158 4.8 14.5 0.00 0.00 0.00 84 1002.4
20260506025402 25 169 6.4 14.5 0.00 0.00 0.00 84 1002.4
20260506025305 25 157 8.0 14.5 0.00 0.00 0.00 84 1002.4
20260506025203 25 151 6.4 14.5 0.00 0.00 0.00 84 1002.5
20260506025103 25 137 6.4 19.3 0.00 0.00 0.00 84 1002.4
20260506025004 25 161 6.4 19.3 0.00 0.00 0.00 84 1002.3
20260506024903 25 162 8.0 19.3 0.00 0.00 0.00 84 1002.3
20260506024803 25 140 8.0 19.3 0.00 0.00 0.00 84 1002.4
20260506024703 25 111 6.4 19.3 0.00 0.00 0.00 84 1002.3
20260506024604 25 147 6.4 19.3 0.00 0.00 0.00 84 1002.4
20260506024503 25 147 9.7 19.3 0.00 0.00 0.00 84 1002.4
20260506024403 25 162 8.0 19.3 0.00 0.00 0.00 84 1002.4
20260506024304 25 173 8.0 19.3 0.00 0.00 0.00 84 1002.4
20260506024201 25 159 9.7 19.3 0.00 0.00 0.00 84 1002.3
20260506024105 25 118 8.0 16.1 0.00 0.00 0.00 84 1002.4
20260506024004 25 158 9.7 16.1 0.00 0.00 0.00 84 1002.4
20260506023902 25 151 8.0 16.1 0.00 0.00 0.00 84 1002.3
20260506023803 25 142 6.4 11.3 0.00 0.00 0.00 84 1002.3
20260506023702 25 164 6.4 11.3 0.00 0.00 0.00 84 1002.2
20260506023602 25 142 4.8 11.3 0.00 0.00 0.00 84 1002.2
20260506023502 25 145 3.2 11.3 0.00 0.00 0.00 84 1002.1
20260506023403 25 131 6.4 11.3 0.00 0.00 0.00 84 1002.1
20260506023303 26 168 8.0 11.3 0.00 0.00 0.00 84 1002.1
20260506023204 25 172 8.0 11.3 0.00 0.00 0.00 84 1002.1
20260506023102 26 148 8.0 11.3 0.00 0.00 0.00 84 1002.1
20260506023002 26 165 8.0 9.7 0.00 0.00 0.00 84 1002.1
20260506022903 26 148 6.4 9.7 0.00 0.00 0.00 83 1002.1
20260506022803 26 151 6.4 9.7 0.00 0.00 0.00 83 1002.1
20260506022702 26 151 8.0 14.5 0.00 0.00 0.00 83 1002.0
20260506022603 26 165 6.4 14.5 0.00 0.00 0.00 83 1002.1
20260506022502 26 148 6.4 14.5 0.00 0.00 0.00 83 1002.0
20260506022403 26 142 4.8 14.5 0.00 0.00 0.00 83 1002.0
20260506022305 26 162 4.8 14.5 0.00 0.00 0.00 83 1002.0
20260506022203 26 168 4.8 14.5 0.00 0.00 0.00 83 1001.9
20260506022104 26 158 4.8 14.5 0.00 0.00 0.00 83 1001.9
20260506022003 26 164 6.4 14.5 0.00 0.00 0.00 83 1001.9
20260506021902 26 189 8.0 14.5 0.00 0.00 0.00 83 1001.9
20260506021803 26 154 6.4 14.5 0.00 0.00 0.00 83 1001.9
20260506021702 26 155 4.8 14.5 0.00 0.00 0.00 83 1001.9
20260506021604 26 158 6.4 14.5 0.00 0.00 0.00 83 1001.9
20260506021504 26 164 6.4 14.5 0.00 0.00 0.00 83 1001.8
20260506021403 26 135 4.8 14.5 0.00 0.00 0.00 83 1001.9
20260506021302 26 144 6.4 14.5 0.00 0.00 0.00 83 1001.9
20260506021204 26 155 6.4 16.1 0.00 0.00 0.00 83 1001.9
20260506021103 26 127 8.0 16.1 0.00 0.00 0.00 83 1002.0
20260506021005 26 127 6.4 16.1 0.00 0.00 0.00 83 1001.9
20260506020904 26 166 4.8 16.1 0.00 0.00 0.00 83 1001.9
20260506020802 26 180 6.4 16.1 0.00 0.00 0.00 82 1001.9
20260506020703 26 159 8.0 16.1 0.00 0.00 0.00 82 1001.8
20260506020603 26 165 8.0 16.1 0.00 0.00 0.00 82 1001.9
20260506020504 26 141 8.0 16.1 0.00 0.00 0.00 82 1001.8
20260506020402 26 151 8.0 16.1 0.00 0.00 0.00 82 1001.8
20260506020302 26 121 9.7 16.1 0.00 0.00 0.00 82 1001.8
20260506020204 26 158 9.7 16.1 0.00 0.00 0.00 82 1001.8
20260506020003 26 151 4.8 11.3 0.00 0.00 0.00 82 1001.8
20260506015901 26 148 4.8 11.3 0.00 0.00 0.00 82 1001.8
20260506015802 26 214 4.8 11.3 0.00 0.00 0.00 82 1001.8
20260506015703 26 138 4.8 11.3 0.00 0.00 0.00 82 1001.8
20260506015602 26 165 6.4 11.3 0.00 0.00 0.00 82 1001.8
20260506015504 26 151 4.8 11.3 0.00 0.00 0.00 82 1001.7
20260506015403 26 144 6.4 11.3 0.00 0.00 0.00 82 1001.8
20260506015305 26 148 6.4 11.3 0.00 0.00 0.00 82 1001.7
20260506015204 26 183 6.4 16.1 0.00 0.00 0.00 82 1001.7
20260506015103 26 138 6.4 16.1 0.00 0.00 0.00 82 1001.8
20260506015004 26 168 6.4 16.1 0.00 0.00 0.00 82 1001.7
20260506014902 26 155 6.4 16.1 0.00 0.00 0.00 82 1001.8
20260506014802 26 161 6.4 16.1 0.00 0.00 0.00 82 1001.7
20260506014703 26 159 4.8 16.1 0.00 0.00 0.00 82 1001.7
20260506014603 26 134 4.8 16.1 0.00 0.00 0.00 82 1001.6
20260506014502 26 152 4.8 16.1 0.00 0.00 0.00 82 1001.7
20260506014402 26 148 6.4 16.1 0.00 0.00 0.00 82 1001.7
20260506014303 26 135 8.0 14.5 0.00 0.00 0.00 81 1001.6
20260506014201 26 169 9.7 14.5 0.00 0.00 0.00 81 1001.6
20260506014103 26 151 8.0 14.5 0.00 0.00 0.00 81 1001.7
20260506014003 26 123 8.0 14.5 0.00 0.00 0.00 81 1001.5
20260506013903 26 134 6.4 14.5 0.00 0.00 0.00 81 1001.5
20260506013803 26 158 6.4 14.5 0.00 0.00 0.00 81 1001.5
20260506013703 26 118 4.8 11.3 0.00 0.00 0.00 81 1001.5
20260506013603 26 145 3.2 11.3 0.00 0.00 0.00 81 1001.5
20260506013503 26 159 4.8 11.3 0.00 0.00 0.00 81 1001.5
20260506013403 26 149 6.4 11.3 0.00 0.00 0.00 81 1001.4
20260506013303 26 159 6.4 11.3 0.00 0.00 0.00 81 1001.5
20260506013202 26 149 6.4 11.3 0.00 0.00 0.00 81 1001.4
20260506013102 26 147 6.4 11.3 0.00 0.00 0.00 81 1001.4
20260506013004 26 120 6.4 17.7 0.00 0.00 0.00 81 1001.4
20260506012903 26 142 4.8 17.7 0.00 0.00 0.00 81 1001.5
20260506012803 26 149 6.4 17.7 0.00 0.00 0.00 81 1001.5
20260506012702 26 135 6.4 17.7 0.00 0.00 0.00 81 1001.5
20260506012603 26 144 6.4 17.7 0.00 0.00 0.00 80 1001.4
20260506012504 26 142 4.8 17.7 0.00 0.00 0.00 80 1001.4
20260506012403 26 138 3.2 17.7 0.00 0.00 0.00 80 1001.4
20260506012307 26 161 4.8 17.7 0.00 0.00 0.00 80 1001.4
20260506012202 26 165 8.0 17.7 0.00 0.00 0.00 80 1001.2
20260506012104 26 152 9.7 17.7 0.00 0.00 0.00 80 1001.2
20260506012003 26 144 8.0 14.5 0.00 0.00 0.00 80 1001.2
20260506011903 26 147 6.4 9.7 0.00 0.00 0.00 80 1001.1
20260506011802 26 176 4.8 14.5 0.00 0.00 0.00 80 1001.1
20260506011704 26 202 4.8 16.1 0.00 0.00 0.00 80 1001.1
20260506011603 26 180 4.8 16.1 0.00 0.00 0.00 80 1001.1
20260506011502 26 142 4.8 16.1 0.00 0.00 0.00 80 1001.1
20260506011403 26 161 3.2 16.1 0.00 0.00 0.00 80 1001.1
20260506011303 26 161 3.2 16.1 0.00 0.00 0.00 80 1001.0
20260506011203 26 149 3.2 16.1 0.00 0.00 0.00 79 1001.1
20260506011105 26 131 3.2 16.1 0.00 0.00 0.00 79 1001.0
20260506011003 26 140 6.4 16.1 0.00 0.00 0.00 79 1001.0
20260506010903 26 173 8.0 16.1 0.00 0.00 0.00 79 1000.9
20260506010802 26 145 6.4 16.1 0.00 0.00 0.00 79 1001.0
20260506010704 26 148 4.8 14.5 0.00 0.00 0.00 79 1001.0
20260506010603 26 165 4.8 17.7 0.00 0.00 0.00 79 1001.0
20260506010501 26 193 6.4 17.7 0.00 0.00 0.00 79 1001.0
20260506010403 26 166 4.8 17.7 0.00 0.00 0.00 79 1000.9
20260506010303 26 166 4.8 17.7 0.00 0.00 0.00 79 1001.0
20260506010204 26 133 4.8 17.7 0.00 0.00 0.00 79 1000.9
20260506010004 26 152 6.4 17.7 0.00 0.00 0.00 79 1000.9
20260506005903 26 199 4.8 17.7 0.00 0.00 0.00 79 1000.9
20260506005802 26 164 6.4 17.7 0.00 0.00 0.00 79 1000.9
20260506005702 26 172 6.4 17.7 0.00 0.00 0.00 79 1000.9
20260506005604 26 164 6.4 14.5 0.00 0.00 0.00 79 1000.9
20260506005504 26 148 6.4 14.5 0.00 0.00 0.00 79 1000.9
20260506005404 26 157 6.4 14.5 0.00 0.00 0.00 79 1000.9
20260506005305 26 165 8.0 14.5 0.00 0.00 0.00 79 1000.9
20260506005203 26 182 9.7 14.5 0.00 0.00 0.00 79 1000.9
20260506005104 26 196 6.4 14.5 0.00 0.00 0.00 79 1000.9
20260506005004 26 233 6.4 14.5 0.00 0.00 0.00 79 1000.9
20260506004903 26 152 4.8 14.5 0.00 0.00 0.00 79 1000.9
20260506004805 26 157 6.4 14.5 0.00 0.00 0.00 79 1000.9
20260506004705 26 176 6.4 14.5 0.00 0.00 0.00 79 1000.8
20260506004604 26 152 8.0 14.5 0.00 0.00 0.00 79 1000.8
20260506004504 26 169 8.0 14.5 0.00 0.00 0.00 79 1000.8
20260506004402 26 121 6.4 14.5 0.00 0.00 0.00 79 1000.9
20260506004304 26 161 4.8 16.1 0.00 0.00 0.00 79 1000.9
20260506004203 26 138 3.2 16.1 0.00 0.00 0.00 79 1000.8
20260506004102 26 152 3.2 16.1 0.00 0.00 0.00 79 1000.8
20260506004004 26 144 4.8 16.1 0.00 0.00 0.00 79 1000.9
20260506003903 26 159 6.4 16.1 0.00 0.00 0.00 79 1000.8
20260506003802 26 188 6.4 16.1 0.00 0.00 0.00 79 1000.8
20260506003703 26 141 8.0 16.1 0.00 0.00 0.00 78 1000.9
20260506003604 26 137 6.4 16.1 0.00 0.00 0.00 78 1000.8
20260506003503 26 158 6.4 16.1 0.00 0.00 0.00 79 1000.9
20260506003402 26 173 8.0 16.1 0.00 0.00 0.00 79 1000.9
20260506003303 26 164 6.4 16.1 0.00 0.00 0.00 78 1000.9
20260506003203 26 151 6.4 16.1 0.00 0.00 0.00 78 1001.0
20260506003103 26 152 8.0 16.1 0.00 0.00 0.00 78 1000.8
20260506003003 26 158 8.0 16.1 0.00 0.00 0.00 78 1000.8
20260506002902 26 207 8.0 16.1 0.00 0.00 0.00 78 1000.9
20260506002805 26 144 6.4 16.1 0.00 0.00 0.00 78 1000.9
20260506002702 26 228 8.0 16.1 0.00 0.00 0.00 78 1000.8
20260506002604 26 161 9.7 16.1 0.00 0.00 0.00 78 1000.7
20260506002504 26 141 8.0 16.1 0.00 0.00 0.00 78 1000.7
20260506002402 26 151 8.0 16.1 0.00 0.00 0.00 78 1000.7
20260506002306 26 157 6.4 16.1 0.00 0.00 0.00 78 1000.6
20260506002203 26 188 4.8 16.1 0.00 0.00 0.00 78 1000.7
20260506002103 26 130 4.8 16.1 0.00 0.00 0.00 78 1000.6
20260506002003 26 137 4.8 16.1 0.00 0.00 0.00 78 1000.7
20260506001903 26 165 6.4 16.1 0.00 0.00 0.00 78 1000.6
20260506001804 26 148 8.0 16.1 0.00 0.00 0.00 78 1000.6
20260506001704 26 171 8.0 11.3 0.00 0.00 0.00 78 1000.6
20260506001602 27 147 8.0 11.3 0.00 0.00 0.00 78 1000.6
20260506001503 27 142 6.4 16.1 0.00 0.00 0.00 78 1000.5
20260506001403 27 151 3.2 16.1 0.00 0.00 0.00 78 1000.7
20260506001303 27 131 4.8 16.1 0.00 0.00 0.00 78 1000.7
20260506001203 27 173 4.8 16.1 0.00 0.00 0.00 78 1000.7
20260506001104 27 131 4.8 16.1 0.00 0.00 0.00 78 1000.7
20260506001002 27 148 6.4 16.1 0.00 0.00 0.00 78 1000.6
20260506000903 27 171 8.0 20.9 0.00 0.00 0.00 78 1000.6
20260506000802 27 158 8.0 20.9 0.00 0.00 0.00 78 1000.7
20260506000702 27 179 8.0 20.9 0.00 0.00 0.00 78 1000.7
20260506000602 27 151 6.4 20.9 0.00 0.00 0.00 78 1000.8
20260506000503 27 145 6.4 20.9 0.00 0.00 0.00 78 1000.8
20260506000402 27 186 6.4 20.9 0.00 0.00 0.00 78 1000.8
20260506000302 27 158 6.4 20.9 0.00 0.00 0.00 78 1000.8
20260506000204 27 176 6.4 20.9 0.00 0.00 0.00 78 1000.8
20260506000104 27 140 6.4 20.9 0.00 0.00 0.00 78 1000.8
20260506000004 27 116 6.4 20.9 0.00 0.00 0.00 78 1000.7
20260505235903 27 157 4.8 17.7 0.00 0.00 0.00 78 1000.7
20260505235802 27 145 6.4 17.7 0.00 0.00 0.00 78 1000.8
20260505235703 27 164 6.4 17.7 0.00 0.00 0.00 78 1000.7
20260505235602 27 149 6.4 17.7 0.00 0.00 0.00 78 1000.8
20260505235504 27 141 6.4 17.7 0.00 0.00 0.00 78 1000.7
20260505235403 27 152 6.4 17.7 0.00 0.00 0.00 78 1000.7
20260505235304 27 145 8.0 17.7 0.00 0.00 0.00 78 1000.7
20260505235203 27 165 8.0 17.7 0.00 0.00 0.00 78 1000.6
20260505235102 27 152 9.7 19.3 0.00 0.00 0.00 78 1000.7
20260505235004 27 116 9.7 19.3 0.00 0.00 0.00 78 1000.7
20260505234903 27 113 6.4 19.3 0.00 0.00 0.00 78 1000.7
20260505234803 27 131 4.8 19.3 0.00 0.00 0.00 78 1000.7
20260505234703 27 155 4.8 19.3 0.00 0.00 0.00 78 1000.7
20260505234603 27 148 4.8 19.3 0.00 0.00 0.00 78 1000.6
20260505234505 27 120 6.4 19.3 0.00 0.00 0.00 78 1000.6
20260505234403 27 183 9.7 19.3 0.00 0.00 0.00 78 1000.6
20260505234304 27 159 9.7 19.3 0.00 0.00 0.00 78 1000.7
20260505234202 27 162 8.0 19.3 0.00 0.00 0.00 78 1000.6
20260505234103 27 142 6.4 19.3 0.00 0.00 0.00 78 1000.6
20260505234004 27 144 6.4 19.3 0.00 0.00 0.00 78 1000.6
20260505233903 27 162 6.4 19.3 0.00 0.00 0.00 77 1000.6
20260505233803 27 171 6.4 19.3 0.00 0.00 0.00 77 1000.7
20260505233703 27 152 6.4 19.3 0.00 0.00 0.00 77 1000.6
20260505233602 27 158 6.4 19.3 0.00 0.00 0.00 77 1000.7
20260505233504 27 206 6.4 19.3 0.00 0.00 0.00 77 1000.6
20260505233403 27 125 6.4 19.3 0.00 0.00 0.00 77 1000.6
20260505233302 27 155 6.4 19.3 0.00 0.00 0.00 77 1000.6
20260505233204 27 162 6.4 16.1 0.00 0.00 0.00 77 1000.6
20260505233104 27 192 6.4 16.1 0.00 0.00 0.00 77 1000.5
20260505233003 27 183 4.8 16.1 0.00 0.00 0.00 77 1000.6
20260505232902 27 171 4.8 16.1 0.00 0.00 0.00 77 1000.6
20260505232804 27 158 8.0 16.1 0.00 0.00 0.00 77 1000.6
20260505232703 27 152 8.0 16.1 0.00 0.00 0.00 77 1000.6
20260505232602 27 162 6.4 16.1 0.00 0.00 0.00 77 1000.6
20260505232504 27 186 6.4 16.1 0.00 0.00 0.00 77 1000.6
20260505232404 27 159 8.0 16.1 0.00 0.00 0.00 77 1000.6
20260505232305 27 142 8.0 16.1 0.00 0.00 0.00 77 1000.6
20260505232203 27 111 6.4 16.1 0.00 0.00 0.00 78 1000.6
20260505232104 27 159 6.4 14.5 0.00 0.00 0.00 78 1000.6
20260505232003 27 159 6.4 14.5 0.00 0.00 0.00 78 1000.6
20260505231903 27 141 6.4 14.5 0.00 0.00 0.00 78 1000.6
20260505231803 27 145 4.8 14.5 0.00 0.00 0.00 78 1000.6
20260505231702 27 176 6.4 14.5 0.00 0.00 0.00 78 1000.6
20260505231604 27 183 6.4 14.5 0.00 0.00 0.00 78 1000.7
20260505231503 27 148 6.4 14.5 0.00 0.00 0.00 77 1000.6
20260505231402 27 158 6.4 14.5 0.00 0.00 0.00 77 1000.6
20260505231303 27 202 6.4 14.5 0.00 0.00 0.00 77 1000.6
20260505231202 27 162 8.0 14.5 0.00 0.00 0.00 77 1000.6
20260505231104 27 179 8.0 16.1 0.00 0.00 0.00 77 1000.6
20260505231002 27 158 8.0 20.9 0.00 0.00 0.00 77 1000.5
20260505230902 27 151 8.0 20.9 0.00 0.00 0.00 77 1000.5
20260505230803 27 192 8.0 20.9 0.00 0.00 0.00 78 1000.6
20260505230703 27 149 6.4 20.9 0.00 0.00 0.00 78 1000.5
20260505230602 27 144 6.4 20.9 0.00 0.00 0.00 78 1000.5
20260505230503 27 149 6.4 20.9 0.00 0.00 0.00 78 1000.6
20260505230402 27 180 4.8 20.9 0.00 0.00 0.00 78 1000.6
20260505230303 27 164 8.0 20.9 0.00 0.00 0.00 77 1000.6
20260505230202 27 193 9.7 20.9 0.00 0.00 0.00 77 1000.6
20260505230005 27 159 6.4 17.7 0.00 0.00 0.00 77 1000.6
20260505225903 27 120 4.8 17.7 0.00 0.00 0.00 77 1000.7
20260505225801 27 164 4.8 17.7 0.00 0.00 0.00 77 1000.7
20260505225703 27 185 4.8 17.7 0.00 0.00 0.00 77 1000.7
20260505225603 27 176 6.4 17.7 0.00 0.00 0.00 77 1000.7
20260505225503 27 166 6.4 17.7 0.00 0.00 0.00 77 1000.6
20260505225404 27 165 4.8 17.7 0.00 0.00 0.00 77 1000.6
20260505225305 27 118 6.4 17.7 0.00 0.00 0.00 77 1000.6
20260505225204 27 120 9.7 17.7 0.00 0.00 0.00 77 1000.6
20260505225103 27 96 9.7 17.7 0.00 0.00 0.00 77 1000.5
20260505225003 27 137 9.7 16.1 0.00 0.00 0.00 77 1000.6
20260505224903 27 145 9.7 16.1 0.00 0.00 0.00 77 1000.6
20260505224804 27 120 8.0 16.1 0.00 0.00 0.00 77 1000.6
20260505224704 27 142 8.0 16.1 0.00 0.00 0.00 77 1000.6
20260505224602 27 155 9.7 16.1 0.00 0.00 0.00 77 1000.6
20260505224504 27 210 9.7 16.1 0.00 0.00 0.00 77 1000.5
20260505224403 27 123 8.0 16.1 0.00 0.00 0.00 77 1000.7
20260505224303 27 137 8.0 16.1 0.00 0.00 0.00 77 1000.7
20260505224202 27 148 8.0 16.1 0.00 0.00 0.00 77 1000.7
20260505224102 27 127 6.4 16.1 0.00 0.00 0.00 77 1000.6
20260505224005 27 131 6.4 16.1 0.00 0.00 0.00 77 1000.6
20260505223903 27 199 9.7 16.1 0.00 0.00 0.00 77 1000.7
20260505223803 27 111 9.7 16.1 0.00 0.00 0.00 77 1000.6
20260505223703 27 118 8.0 16.1 0.00 0.00 0.00 77 1000.7
20260505223604 28 175 6.4 11.3 0.00 0.00 0.00 77 1000.6
20260505223502 28 109 6.4 11.3 0.00 0.00 0.00 77 1000.6
20260505223403 28 164 4.8 17.7 0.00 0.00 0.00 77 1000.6
20260505223303 28 203 6.4 17.7 0.00 0.00 0.00 76 1000.6
20260505223202 28 128 6.4 17.7 0.00 0.00 0.00 77 1000.7
20260505223103 27 147 6.4 17.7 0.00 0.00 0.00 76 1000.7
20260505223003 28 117 6.4 17.7 0.00 0.00 0.00 76 1000.7
20260505222904 28 196 6.4 17.7 0.00 0.00 0.00 76 1000.7
20260505222801 28 175 6.4 17.7 0.00 0.00 0.00 76 1000.7
20260505222704 28 164 6.4 17.7 0.00 0.00 0.00 75 1000.6
20260505222602 28 157 8.0 17.7 0.00 0.00 0.00 75 1000.7
20260505222503 28 135 9.7 17.7 0.00 0.00 0.00 75 1000.7
20260505222402 28 172 8.0 17.7 0.00 0.00 0.00 76 1000.6
20260505222305 28 166 8.0 16.1 0.00 0.00 0.00 76 1000.6
20260505222203 28 179 6.4 16.1 0.00 0.00 0.00 76 1000.7
20260505222103 28 172 4.8 16.1 0.00 0.00 0.00 76 1000.7
20260505222002 28 226 4.8 16.1 0.00 0.00 0.00 76 1000.7
20260505221902 28 155 6.4 16.1 0.00 0.00 0.00 75 1000.8
20260505221803 28 189 6.4 16.1 0.00 0.00 0.00 75 1000.7
20260505221703 28 125 8.0 20.9 0.00 0.00 0.00 75 1000.7
20260505221603 28 145 9.7 20.9 0.00 0.00 0.00 75 1000.7
20260505221504 28 137 8.0 20.9 0.00 0.00 0.00 75 1000.6
20260505221403 28 161 9.7 20.9 0.00 0.00 0.00 75 1000.7
20260505221304 28 147 8.0 20.9 0.00 0.00 0.00 75 1000.8
20260505221202 28 147 6.4 20.9 0.00 0.00 0.00 75 1000.8
20260505221103 28 140 4.8 20.9 0.00 0.00 0.00 75 1000.8
20260505221003 28 165 6.4 20.9 0.00 0.00 0.00 75 1000.8
20260505220903 28 128 9.7 20.9 0.00 0.00 0.00 75 1000.8
20260505220803 28 144 9.7 20.9 0.00 0.00 0.00 75 1000.8
20260505220702 28 145 6.4 14.5 0.00 0.00 0.00 76 1000.8
20260505220604 28 138 3.2 14.5 0.00 0.00 0.00 76 1000.8
20260505220502 28 200 4.8 19.3 0.00 0.00 0.00 75 1000.8
20260505220404 28 189 9.7 19.3 0.00 0.00 0.00 75 1000.8
20260505220304 28 200 9.7 19.3 0.00 0.00 0.00 75 1000.8
20260505220203 28 164 8.0 19.3 0.00 0.00 0.00 75 1000.8
20260505220001 28 176 6.4 19.3 0.00 0.00 0.00 75 1000.8
20260505215903 28 157 6.4 19.3 0.00 0.00 0.00 75 1000.8
20260505215804 28 220 8.0 19.3 0.00 0.00 0.00 75 1000.9
20260505215703 28 178 6.4 19.3 0.00 0.00 0.00 75 1000.9
20260505215602 28 125 6.4 19.3 0.00 0.00 0.00 75 1000.9
20260505215502 28 142 6.4 14.5 0.00 0.00 0.00 75 1001.0
20260505215403 28 202 6.4 20.9 0.00 0.00 0.00 75 1001.0
20260505215305 28 168 6.4 20.9 0.00 0.00 0.00 75 1001.0
20260505215203 28 155 6.4 20.9 0.00 0.00 0.00 75 1001.0
20260505215103 28 196 8.0 20.9 0.00 0.00 0.00 75 1001.0
20260505215002 28 178 6.4 20.9 0.00 0.00 0.00 75 1001.0
20260505214904 28 172 6.4 20.9 0.00 0.00 0.00 75 1001.1
20260505214802 28 188 8.0 20.9 0.00 0.00 0.00 74 1001.1
20260505214703 28 179 9.7 20.9 0.00 0.00 0.00 74 1001.0
20260505214604 28 176 9.7 20.9 0.00 0.00 0.00 74 1001.0
20260505214502 28 183 8.0 20.9 0.00 0.00 0.00 75 1001.0
20260505214403 28 262 6.4 17.7 0.00 0.00 0.00 75 1001.1
20260505214303 28 175 6.4 17.7 0.00 0.00 0.00 74 1001.0
20260505214204 28 176 6.4 17.7 0.00 0.00 0.00 74 1001.1
20260505214101 28 199 9.7 17.7 0.00 0.00 0.00 74 1001.1
20260505214004 28 138 9.7 19.3 0.00 0.00 0.00 74 1001.1
20260505213904 28 161 9.7 19.3 0.00 0.00 0.00 74 1001.1
20260505213803 28 209 8.0 19.3 0.00 0.00 0.00 74 1001.1
20260505213702 28 158 11.3 19.3 0.00 0.00 0.00 74 1001.1
20260505213603 28 217 11.3 19.3 0.00 0.00 0.00 74 1001.1
20260505213505 28 183 11.3 19.3 0.00 0.00 0.00 74 1001.2
20260505213403 28 152 11.3 19.3 0.00 0.00 0.00 74 1001.2
20260505213302 28 210 9.7 19.3 0.00 0.00 0.00 74 1001.2
20260505213201 28 183 9.7 25.7 0.00 0.00 0.00 74 1001.2
20260505213101 28 158 11.3 25.7 0.00 0.00 0.00 74 1001.1
20260505213002 28 175 9.7 25.7 0.00 0.00 0.00 74 1001.2
20260505212904 28 172 8.0 25.7 0.00 0.00 0.00 74 1001.3
20260505212802 28 149 8.0 25.7 0.00 0.00 0.00 74 1001.2
20260505212703 28 142 6.4 25.7 0.00 0.00 0.00 74 1001.2
20260505212602 28 196 8.0 25.7 0.00 0.00 0.00 74 1001.3
20260505212504 28 142 9.7 25.7 0.00 0.00 0.00 75 1001.3
20260505212402 28 169 9.7 25.7 0.00 0.00 0.00 75 1001.3
20260505212305 28 135 9.7 25.7 0.00 0.00 0.00 75 1001.3
20260505212202 28 169 6.4 16.1 0.00 0.00 0.00 75 1001.2
20260505212103 28 190 8.0 16.1 0.00 0.00 0.00 75 1001.3
20260505212004 28 121 4.8 19.3 0.00 0.00 0.00 76 1001.3
20260505211904 28 125 4.8 19.3 0.00 0.00 0.00 76 1001.3
20260505211804 28 176 4.8 19.3 0.00 0.00 0.00 76 1001.4
20260505211702 28 169 4.8 19.3 0.00 0.00 0.00 75 1001.3
20260505211603 28 189 6.4 19.3 0.00 0.00 0.00 75 1001.3
20260505211505 28 188 6.4 19.3 0.00 0.00 0.00 75 1001.3
20260505211404 28 186 6.4 19.3 0.00 0.00 0.00 75 1001.3
20260505211304 28 180 8.0 19.3 0.00 0.00 0.00 75 1001.4
20260505211202 28 158 9.7 19.3 0.00 0.00 0.00 75 1001.4
20260505211102 28 210 11.3 19.3 0.00 0.00 0.00 75 1001.4
20260505211004 28 190 9.7 20.9 0.00 0.00 0.00 75 1001.4
20260505210904 28 135 11.3 20.9 0.00 0.00 0.00 75 1001.4
20260505210803 28 210 9.7 20.9 0.00 0.00 0.00 76 1001.6
20260505210702 28 175 6.4 22.5 0.00 0.00 0.00 76 1001.5
20260505210602 28 171 6.4 22.5 0.00 0.00 0.00 75 1001.5
20260505210504 28 196 8.0 22.5 0.00 0.00 0.00 75 1001.5
20260505210404 28 203 4.8 22.5 0.00 0.00 0.00 75 1001.6
20260505210303 28 159 6.4 22.5 0.00 0.00 0.00 75 1001.6
20260505210202 28 151 9.7 22.5 0.00 0.00 0.00 75 1001.5
20260505210003 28 193 9.7 22.5 0.00 0.00 0.00 75 1001.6
20260505205904 28 220 11.3 22.5 0.00 0.00 0.00 75 1001.6
20260505205805 28 179 9.7 22.5 0.00 0.00 0.00 75 1001.5
20260505205704 28 147 6.4 16.1 0.00 0.00 0.00 76 1001.5
20260505205602 28 154 4.8 16.1 0.00 0.00 0.00 76 1001.5
20260505205503 28 124 6.4 16.1 0.00 0.00 0.00 75 1001.5
20260505205403 28 192 6.4 16.1 0.00 0.00 0.00 75 1001.6
20260505205305 28 166 8.0 16.1 0.00 0.00 0.00 75 1001.6
20260505205204 28 192 8.0 16.1 0.00 0.00 0.00 76 1001.6
20260505205102 28 140 6.4 14.5 0.00 0.00 0.00 76 1001.6
20260505205002 28 145 6.4 11.3 0.00 0.00 0.00 76 1001.7
20260505204904 28 192 8.0 11.3 0.00 0.00 0.00 76 1001.8
20260505204804 28 188 6.4 11.3 0.00 0.00 0.00 75 1001.7
20260505204704 28 166 6.4 11.3 0.00 0.00 0.00 75 1001.7
20260505204603 28 152 6.4 11.3 0.00 0.00 0.00 75 1001.7
20260505204504 28 164 6.4 11.3 0.00 0.00 0.00 75 1001.7
20260505204403 28 179 6.4 14.5 0.00 0.00 0.00 76 1001.8
20260505204303 28 161 6.4 14.5 0.00 0.00 0.00 76 1001.7
20260505204203 28 155 6.4 14.5 0.00 0.00 0.00 76 1001.7
20260505204104 28 144 6.4 19.3 0.00 0.00 0.00 76 1001.8
20260505204003 28 158 4.8 19.3 0.00 0.00 0.00 75 1001.9
20260505203902 28 180 3.2 19.3 0.00 0.00 0.00 76 1001.9
20260505203802 28 148 3.2 19.3 0.00 0.00 0.00 75 1001.9
20260505203703 28 209 8.0 19.3 0.00 0.00 0.00 75 1001.9
20260505203604 28 209 8.0 19.3 0.00 0.00 0.00 75 1001.9
20260505203505 28 176 8.0 19.3 0.00 0.00 0.00 75 1002.0
20260505203404 28 193 8.0 19.3 0.00 0.00 0.00 75 1001.9
20260505203302 28 145 8.0 19.3 0.00 0.00 0.00 75 1001.9
20260505203204 28 179 8.0 19.3 0.00 0.00 0.00 75 1001.9
20260505203103 28 168 8.0 19.3 0.00 0.00 0.00 75 1002.0
20260505203002 28 171 8.0 19.3 0.00 0.00 0.00 75 1002.0